GFSNE_con_lsi_000.txt.gz
Lid_Strength_Index
2 2 2 2 2 2 2 2 4 6 7 5 2 0 -0 0 0 2 2 3 3 3 3 3 2 3 3 4 4 4 3 3 3 3 3 4 3 3
1 2 2 2 2 2 2 2 2 4 6 4 4 3 2 2 1 1 1 1 3 3 3 4 4 3 3 4 4 4 4 4 4 3 3 4 5 5
3 2 2 2 2 2 3 3 4 4 6 5 4 3 3 2 2 2 1 2 3 3 3 4 4 4 4 4 5 5 5 5 4 4 3 4 4 5
3 3 3 2 3 3 3 4 4 4 6 7 6 5 5 4 4 3 2 2 3 2 2 3 3 4 4 4 5 5 5 6 5 5 5 5 4 4
4 4 4 4 5 5 4 5 5 4 5 6 7 6 6 5 5 4 4 4 2 1 2 3 3 3 3 4 4 5 5 5 5 6 6 6 6 6
5 5 5 4 5 5 5 5 5 7 7 8 8 8 7 6 6 7 7 5 5 4 3 4 3 3 3 4 4 4 4 4 4 5 6 7 7 7
5 5 4 3 2 3 5 6 7 8 9 9 9 8 8 8 8 6 7 6 6 5 6 6 5 4 4 3 3 3 4 4 4 4 5 6 6 7
7 6 5 3 2 2 2 3 6 8 9 10 10 10 10 9 8 8 9 10 10 7 7 8 6 6 5 4 3 4 5 5 5 5 5 5 6 7
7 7 6 4 3 3 3 4 5 5 6 8 10 10 10 9 9 10 10 10 10 8 8 10 9 9 7 5 4 4 5 5 5 5 5 6 6 7
7 7 6 6 5 5 5 6 7 7 7 7 8 9 8 8 8 8 8 8 9 8 7 10 9 10 8 8 5 4 5 5 5 5 5 5 6 6
6 6 5 5 4 4 6 6 7 7 6 6 6 6 6 6 6 8 9 10 10 9 8 9 10 10 10 10 8 4 5 5 5 5 5 5 5 6
6 5 5 5 5 5 6 6 8 8 8 9 9 9 8 7 6 6 8 10 11 11 8 8 9 9 10 10 8 7 9 5 5 5 5 5 5 7
8 7 6 4 5 6 6 8 9 9 10 10 10 10 9 9 8 7 7 8 10 10 8 8 9 10 9 10 10 9 7 7 7 6 5 5 5 6
9 7 7 6 6 6 7 7 8 9 11 11 11 10 10 9 8 8 7 7 6 7 6 6 8 10 10 10 10 10 9 8 8 7 7 5 5 5
8 8 7 7 7 7 7 8 9 10 10 11 11 11 10 9 8 8 7 7 7 6 5 6 6 8 8 9 9 10 10 9 7 6 7 8 9 7
9 9 8 9 9 9 9 9 10 10 11 11 11 10 9 9 9 8 8 8 9 9 6 5 6 6 8 8 8 9 10 10 9 6 6 8 8 5
10 10 11 11 11 11 11 11 11 11 11 11 11 10 10 10 10 10 8 10 10 10 10 8 5 5 6 7 9 9 9 10 9 7 7 7 8 7
11 12 13 13 13 12 12 12 12 12 12 11 11 11 11 11 10 9 7 10 12 12 10 9 6 6 7 8 6 8 11 10 9 8 7 7 8 8
12 12 13 13 13 13 13 13 13 12 11 11 11 11 11 11 10 10 9 10 10 8 11 7 8 7 8 10 9 7 8 9 8 10 9 9 8 7
13 13 13 13 13 13 13 13 13 12 12 12 11 11 12 11 10 11 10 10 9 9 8 9 11 10 9 9 8 11 7 8 8 9 9 7 9 8
13 13 13 13 13 13 14 13 13 13 13 13 12 11 11 10 11 11 10 12 11 10 11 11 11 10 9 9 10 9 11 7 8 9 9 9 8 10
13 13 13 13 13 14 14 14 14 14 13 14 14 13 11 10 11 11 10 11 10 11 10 10 8 9 9 10 9 11 11 10 8 7 8 8 11 11
15 13 13 14 14 14 14 15 15 15 15 14 14 14 12 12 11 10 11 10 11 12 13 10 10 9 9 11 12 11 13 11 9 10 11 7 8 8

GFSNE_con_lsi_003.txt.gz
Lid_Strength_Index
3 3 2 2 3 3 2 2 4 7 6 5 4 3 1 0 -0 -1 -1 1 3 3 2 3 2 3 3 3 3 3 3 2 2 2 3 4 3 3
3 3 3 3 1 2 3 3 3 4 7 5 4 2 2 2 0 -0 -0 -1 2 2 3 3 3 3 3 3 3 4 4 4 4 3 3 4 5 5
3 3 3 3 3 2 2 3 4 4 6 5 5 4 4 4 3 2 -0 1 0 2 2 3 3 3 3 4 5 4 4 5 5 5 4 4 4 5
5 5 5 4 5 4 3 3 4 4 5 8 7 6 5 4 4 3 2 2 1 1 1 2 2 3 3 4 5 5 5 5 5 5 5 5 5 4
6 7 6 6 6 5 5 5 5 5 7 7 9 7 6 5 5 5 3 3 2 0 1 2 2 2 3 3 3 4 5 5 5 6 6 6 6 6
6 6 6 6 6 5 5 5 5 8 8 9 9 8 8 6 6 7 6 5 5 3 3 3 2 2 2 3 3 3 4 4 4 5 6 7 8 7
7 6 6 5 3 3 4 5 6 7 8 9 10 10 10 9 9 8 9 8 7 6 7 6 6 5 4 4 3 3 3 3 4 4 5 6 7 7
9 8 7 6 5 4 4 4 4 6 8 9 10 11 11 10 10 10 10 10 11 7 8 9 8 8 6 5 3 4 4 4 4 4 4 5 5 6
9 8 7 6 6 5 5 4 5 4 4 7 10 10 10 10 10 11 11 11 11 9 9 10 9 9 8 6 4 4 5 5 5 5 5 5 6 6
7 7 7 6 5 5 6 6 6 6 6 6 8 8 9 8 9 9 9 9 10 9 9 12 10 11 9 8 5 4 4 4 5 5 5 5 6 6
7 7 6 6 5 4 5 6 6 6 4 5 5 6 6 6 6 8 10 11 12 11 10 11 11 12 12 11 9 5 5 5 5 5 5 5 5 6
8 8 7 6 4 4 6 8 9 8 7 8 9 9 8 8 8 8 8 10 11 14 10 10 10 11 12 11 10 9 10 7 5 5 5 5 5 7
10 9 8 6 6 5 5 7 8 7 8 10 11 11 10 10 9 9 8 9 10 10 8 8 10 11 11 11 11 10 11 9 9 7 5 5 5 6
10 9 8 6 7 7 6 6 7 8 11 11 12 12 11 10 9 8 8 8 7 8 7 7 9 10 10 11 12 10 12 10 11 8 9 6 5 5
10 9 8 8 8 8 7 7 8 9 10 11 11 11 10 9 9 9 9 8 8 7 7 7 7 7 8 9 11 11 11 10 12 11 10 9 7 11
10 10 10 9 10 9 10 10 10 11 11 12 12 11 10 10 10 9 10 9 9 10 9 8 7 6 7 7 8 9 9 9 11 11 7 8 8 8
11 12 12 12 12 11 12 12 12 11 12 12 12 11 11 10 10 10 10 10 10 13 11 10 8 7 6 6 8 8 8 10 10 11 8 10 8 8
12 13 14 14 14 13 13 13 12 12 12 12 12 11 12 11 11 10 10 11 11 11 13 11 11 9 8 7 5 7 9 9 11 10 11 8 8 10
14 14 15 16 15 14 14 14 14 12 12 13 12 12 12 11 11 12 13 13 13 10 9 9 9 9 10 11 9 6 8 10 10 12 12 12 9 9
14 14 15 16 15 14 14 15 14 13 14 13 13 13 12 12 13 12 12 13 12 10 11 11 12 12 13 13 12 14 7 11 11 12 12 11 8 7
14 14 14 15 15 15 16 16 16 15 16 16 15 14 13 12 12 14 13 13 14 11 12 12 12 11 11 11 11 13 13 7 10 13 12 12 11 9
19 15 14 14 16 15 17 18 16 16 17 16 16 16 14 12 13 13 13 13 14 15 14 12 10 9 10 12 13 14 15 15 10 7 7 8 12 12
20 19 17 17 17 17 15 16 17 18 18 17 17 17 16 15 13 12 15 14 12 15 15 12 11 11 11 12 13 12 16 17 12 13 13 8 7 7

GFSNE_con_lsi_006.txt.gz
Lid_Strength_Index
5 4 4 3 3 3 2 3 5 8 6 6 5 3 3 2 1 1 1 -0 0 1 2 3 3 2 3 3 3 3 2 2 1 2 2 3 3 3
4 4 4 4 3 3 3 3 4 5 7 5 4 4 3 2 1 1 -0 -1 -1 1 2 3 3 2 3 4 3 3 4 3 3 3 3 3 5 5
5 6 6 6 6 6 5 4 4 4 6 6 5 5 6 5 4 3 1 1 0 0 1 3 3 4 3 3 4 4 4 4 4 4 4 4 4 4
7 7 7 6 7 7 7 7 6 5 5 7 7 7 6 5 5 5 3 2 0 1 1 1 3 4 3 4 4 5 5 5 5 5 5 5 5 5
7 8 8 8 8 8 7 7 6 5 6 7 7 7 7 6 6 5 5 5 3 1 2 1 1 1 3 3 4 4 4 5 5 6 6 5 6 6
7 7 8 8 8 8 7 7 6 7 7 7 8 8 8 7 6 7 8 7 7 4 3 4 3 2 2 3 3 3 3 4 5 5 6 6 7 7
7 8 8 7 5 5 5 5 7 8 8 8 9 9 9 10 10 8 9 9 8 7 6 6 7 6 5 4 3 2 3 4 4 5 5 6 6 6
9 8 8 6 6 5 4 4 5 7 7 8 9 9 10 10 10 10 11 11 11 8 8 9 7 8 7 6 3 3 4 4 4 4 5 5 5 6
9 9 8 7 6 6 5 4 5 4 4 6 8 8 9 9 9 11 11 11 11 9 9 10 8 9 8 6 4 4 4 4 4 5 5 5 6 6
8 8 9 8 7 7 6 5 5 5 6 6 7 7 7 7 8 9 10 9 9 9 9 12 10 11 9 9 5 4 4 4 4 4 5 5 6 6
8 8 8 8 6 5 6 7 7 6 5 4 4 4 4 5 6 8 9 10 11 11 10 11 11 13 13 12 10 5 5 4 4 4 4 4 5 6
9 9 8 8 7 5 6 7 8 8 7 8 8 7 7 8 8 8 9 11 11 13 11 11 12 12 14 13 13 12 12 7 5 4 4 4 5 7
11 10 9 7 7 7 6 7 7 6 7 7 8 9 10 10 10 9 10 11 12 11 10 10 11 12 13 12 12 11 12 12 12 8 5 5 4 5
11 10 9 8 7 7 7 7 6 8 9 10 10 11 11 11 10 9 8 8 9 9 8 8 10 11 12 14 12 11 12 12 13 10 11 7 6 5
10 9 9 9 9 9 8 8 8 9 10 12 11 10 10 9 9 9 8 8 8 8 7 7 8 9 10 10 13 12 12 12 14 12 13 12 11 12
10 11 11 10 10 10 10 10 10 11 11 12 11 10 9 9 9 9 10 9 10 10 8 8 8 8 8 8 8 9 10 11 12 11 8 8 8 7
14 14 13 13 13 13 13 12 12 12 12 12 12 12 11 10 10 9 9 9 11 13 12 10 9 9 8 8 8 8 9 10 12 10 10 10 11 9
15 16 17 17 15 14 15 15 13 12 12 12 12 12 12 11 11 10 10 12 12 12 13 10 10 9 9 9 6 8 8 8 11 10 9 10 8 11
17 17 18 17 18 14 15 15 15 14 13 13 13 13 13 12 12 12 14 15 14 11 12 13 10 9 10 12 11 6 8 7 9 13 12 8 8 11
17 17 17 16 15 15 15 16 16 16 17 15 15 15 14 13 14 13 13 15 13 11 12 13 13 12 13 15 14 14 8 9 8 9 9 10 9 7
17 17 18 17 16 16 18 18 19 19 18 18 17 16 15 14 14 13 14 15 16 13 14 14 13 12 12 12 15 15 16 8 11 15 14 15 14 12
20 17 17 18 18 17 19 20 19 21 19 18 18 18 17 15 15 14 15 16 15 17 15 14 11 10 12 12 15 17 15 16 12 8 8 9 13 14
21 19 20 21 21 19 17 19 19 21 20 19 19 18 19 17 15 15 16 16 15 16 15 13 13 12 12 12 15 13 17 18 12 14 15 9 8 7

GFSNE_con_lsi_009.txt.gz
Lid_Strength_Index
6 6 6 5 5 4 4 4 5 9 9 7 6 4 3 2 3 4 3 0 0 1 1 1 1 1 2 2 3 3 2 1 1 1 1 2 2 3
5 6 7 5 6 6 6 6 5 6 8 6 6 4 3 4 3 4 3 -1 -0 0 1 1 2 1 2 3 3 3 3 2 2 1 2 3 3 4
7 7 7 7 7 7 7 7 7 7 8 7 4 3 5 5 5 3 4 4 1 0 1 1 2 1 2 3 3 4 4 4 3 3 3 3 3 3
7 8 8 7 8 8 8 8 8 7 7 9 6 6 6 5 5 5 4 4 5 1 1 1 3 2 2 4 4 4 5 5 5 4 4 4 4 4
8 8 8 8 9 9 9 8 7 6 7 8 7 7 6 6 6 5 6 6 5 2 2 2 3 3 2 2 4 4 5 5 5 5 6 6 5 5
7 8 8 8 9 9 8 6 5 6 6 7 8 8 7 7 7 7 8 7 8 5 4 3 4 4 3 2 3 4 5 5 5 5 6 7 7 7
8 8 8 7 6 6 7 8 7 7 7 6 7 8 8 9 9 8 9 9 8 8 8 7 6 6 6 4 3 3 4 5 4 4 5 6 7 7
9 8 8 7 7 6 6 6 6 7 7 7 7 8 8 9 9 9 9 11 12 8 9 9 7 8 7 6 3 3 3 4 4 4 5 5 6 7
8 8 8 8 8 8 7 6 6 5 4 5 7 7 8 9 9 9 10 10 11 9 9 10 9 9 8 7 5 3 3 4 4 5 5 6 6 7
9 9 9 9 8 8 7 7 6 6 5 5 6 6 7 7 7 7 8 9 9 9 9 12 11 11 9 7 5 4 3 4 4 5 5 6 6 7
9 9 9 9 8 6 7 7 7 6 5 4 4 4 4 4 5 6 8 9 10 9 10 11 12 13 14 12 9 5 4 4 4 4 4 4 5 6
10 10 9 8 7 7 8 8 9 8 7 7 7 6 6 7 6 6 8 9 10 12 10 11 11 13 15 14 13 12 12 7 5 4 4 4 4 7
11 11 10 8 8 7 7 8 8 7 7 7 7 8 8 8 7 8 9 10 11 12 10 11 11 12 13 13 13 13 12 13 12 9 6 4 4 5
11 10 10 9 8 8 8 8 8 8 9 9 9 9 9 9 8 9 9 9 9 10 10 9 12 11 13 15 14 13 14 13 14 11 11 7 6 5
11 9 9 10 10 10 9 9 10 10 11 11 11 10 9 9 8 8 8 8 8 8 8 8 9 10 11 11 13 14 13 12 15 13 14 14 12 13
12 13 12 11 12 12 12 11 11 12 11 11 11 10 9 9 9 8 9 9 10 10 8 7 8 8 9 9 9 10 12 9 13 13 12 8 8 7
17 18 15 14 14 14 14 14 13 12 13 13 13 12 11 10 9 8 8 9 11 12 11 11 8 8 8 8 9 9 9 9 11 11 10 11 11 10
16 20 23 20 17 15 16 16 16 15 14 13 14 13 13 12 11 10 10 11 11 11 11 10 9 9 9 10 7 9 9 9 8 7 9 9 11 11
19 20 23 23 18 15 15 16 17 17 16 15 15 15 14 13 12 12 12 12 12 12 13 13 11 9 10 12 12 8 8 8 8 8 8 9 8 11
18 20 21 21 19 15 15 17 17 19 21 18 16 16 16 15 14 13 13 15 14 12 13 13 14 12 15 17 14 14 9 9 8 9 9 11 10 7
18 17 20 20 19 18 20 19 21 21 22 22 20 18 17 16 15 14 14 15 15 13 14 15 14 13 13 14 16 18 17 9 12 16 15 15 15 10
20 17 17 19 21 21 23 22 19 20 20 20 21 21 20 18 16 15 16 19 17 17 16 14 12 11 13 13 17 21 16 15 11 9 9 10 14 16
19 18 20 23 24 23 20 23 21 22 19 20 20 20 21 19 17 17 17 17 17 17 16 14 13 13 13 13 16 17 16 17 11 13 16 10 8 8

GFSNE_con_lsi_012.txt.gz
Lid_Strength_Index
5 5 5 5 5 6 5 6 7 10 10 7 6 3 3 2 2 2 3 1 -1 1 2 2 2 2 1 2 2 3 2 1 0 -1 -1 -0 0 1
4 5 6 6 6 6 7 7 7 9 11 7 6 4 3 2 2 2 3 2 0 0 1 2 2 3 3 1 1 2 3 1 0 0 1 1 2 2
6 6 6 7 7 7 7 8 8 8 10 9 7 5 5 4 4 2 2 3 3 1 0 1 2 2 3 3 2 2 3 1 1 0 1 1 2 2
7 7 7 6 8 8 9 9 8 8 8 9 7 6 5 5 5 4 3 3 4 1 2 1 1 2 2 2 3 3 3 3 4 3 2 1 1 2
7 7 8 8 9 9 9 9 8 7 6 7 7 6 5 5 5 4 4 4 4 3 2 2 2 2 2 2 2 2 3 3 4 5 4 4 4 4
7 7 8 8 9 9 8 8 8 8 8 7 7 7 6 5 6 6 6 5 6 5 4 3 3 3 3 3 2 2 2 2 4 5 5 6 7 5
8 7 8 7 6 6 8 8 8 8 8 8 8 7 7 7 7 6 7 7 6 6 6 5 5 4 4 4 3 2 2 2 4 5 5 7 7 6
8 8 8 7 7 7 7 7 7 8 8 7 7 8 7 6 6 6 8 9 9 6 6 7 6 6 5 5 4 3 2 3 3 5 4 5 6 6
9 10 9 8 8 8 8 7 6 6 5 5 7 7 6 5 5 7 8 9 8 7 7 8 7 7 6 5 4 3 3 3 3 3 4 5 6 7
9 10 10 10 9 8 8 7 7 6 6 5 5 5 5 4 5 6 7 7 8 7 6 9 8 8 7 6 5 4 3 3 3 3 4 6 6 6
9 9 9 9 8 7 8 9 8 7 5 5 4 4 4 4 4 5 8 8 9 8 7 8 8 9 9 8 7 5 4 4 3 3 3 4 6 7
10 9 9 9 8 8 8 9 10 9 7 6 6 6 5 5 5 6 7 8 8 9 7 8 9 9 10 9 9 8 7 7 5 4 3 3 4 5
11 10 9 8 8 8 8 9 9 8 8 8 7 7 6 6 6 7 7 8 9 9 7 8 9 10 10 10 9 8 7 7 6 6 5 4 3 4
12 11 10 9 9 9 10 9 9 10 10 10 9 9 8 8 7 6 6 7 7 8 8 8 9 9 10 11 10 9 8 8 8 7 6 7 6 4
12 11 9 10 10 11 11 10 11 11 12 12 11 10 9 8 7 6 6 7 7 8 8 8 8 9 9 10 10 10 9 8 10 8 8 7 6 7
14 14 13 11 13 13 12 13 13 12 12 13 12 11 9 9 8 7 8 8 9 9 7 7 8 8 9 9 9 10 9 10 9 9 9 8 8 7
18 19 17 15 14 14 14 14 14 14 14 13 13 13 12 10 9 8 8 8 9 10 9 9 7 7 7 8 9 8 8 9 8 8 8 9 8 7
17 20 23 23 19 15 15 15 16 17 16 14 14 13 13 13 11 10 9 10 10 10 10 9 8 9 9 8 7 8 8 8 8 7 8 8 8 7
19 20 24 24 21 16 15 15 16 17 17 16 16 15 15 13 12 12 11 11 11 11 11 11 10 9 10 12 10 8 9 8 8 8 7 7 8 7
17 19 20 20 18 16 16 16 16 18 19 19 18 17 16 15 14 13 13 13 13 12 12 11 11 11 11 11 11 10 9 9 9 9 8 8 7 7
17 16 19 19 17 17 21 22 21 19 19 21 20 19 18 16 15 14 15 16 15 13 13 13 12 12 11 11 12 12 12 10 10 10 10 10 10 9
18 16 16 17 18 19 23 25 22 22 18 18 19 20 20 19 17 16 16 16 15 15 14 13 11 11 11 11 12 15 12 11 10 9 9 9 10 11
17 16 17 19 21 22 18 21 21 21 21 19 18 18 20 19 18 17 17 16 15 16 15 14 13 12 12 12 12 13 12 13 11 11 10 10 8 8

GFSNE_con_lsi_015.txt.gz
Lid_Strength_Index
2 2 2 1 1 2 2 3 5 8 7 5 5 3 3 2 2 1 -0 0 1 -0 0 1 1 1 1 0 1 2 2 2 0 -1 -1 -1 -1 -0
2 2 1 2 2 2 3 3 4 6 9 6 6 5 4 4 2 2 1 1 1 1 0 1 1 2 2 1 1 1 2 2 0 0 -1 -1 -1 -0
2 2 3 3 3 3 4 4 5 6 8 6 5 4 4 3 3 2 1 0 0 1 1 1 1 2 2 2 2 1 1 2 1 -0 0 -0 -0 0
3 3 4 4 4 4 4 5 6 5 7 8 6 5 4 3 3 2 1 1 1 1 2 2 2 2 2 2 2 2 2 2 1 1 1 1 1 0
4 4 4 4 5 5 5 6 6 6 6 7 7 6 5 4 3 2 2 1 1 2 2 2 3 2 2 2 2 2 2 2 3 3 3 3 2 1
4 4 5 5 6 6 6 6 7 7 7 8 8 7 6 4 4 4 4 2 2 3 3 3 3 3 3 2 2 1 2 2 3 4 4 5 5 4
5 5 6 6 6 7 7 7 7 8 8 8 8 7 6 6 5 4 4 3 3 2 3 3 2 2 1 2 2 2 1 2 2 3 4 4 5 5
7 7 7 7 7 7 7 7 7 8 8 8 6 7 6 5 5 4 5 5 6 1 3 4 3 4 3 2 4 2 1 1 2 2 3 4 4 5
7 8 8 8 8 7 7 7 7 7 6 6 7 6 6 5 4 5 5 5 5 3 4 5 3 4 3 4 4 3 2 1 2 2 3 4 4 5
8 8 8 8 7 8 7 7 7 7 7 6 5 5 5 4 4 4 4 4 4 3 3 6 4 4 3 3 4 4 3 3 2 3 3 3 4 4
8 7 8 8 8 7 8 8 9 8 7 6 5 4 4 4 4 4 5 5 6 5 4 6 5 5 4 4 3 4 4 3 3 3 4 4 4 4
7 8 8 8 8 8 8 9 10 9 8 8 7 5 5 4 4 4 5 6 6 7 5 6 6 6 6 3 3 3 3 5 4 3 3 3 4 3
9 9 8 9 8 8 9 9 9 9 9 9 8 7 6 5 4 4 4 5 6 7 4 5 5 5 6 5 4 3 3 3 3 3 4 4 3 3
9 9 9 9 9 9 10 10 10 10 9 9 9 8 7 6 5 4 4 4 4 5 4 4 6 6 7 8 7 4 4 3 3 4 3 4 5 4
8 9 10 10 10 10 11 11 11 10 10 10 10 9 8 6 5 5 4 4 4 5 5 5 5 6 7 8 8 7 6 4 3 3 3 3 3 3
9 9 11 11 11 11 10 10 11 11 12 11 11 10 8 7 6 5 5 5 6 6 5 5 6 6 7 7 8 8 7 7 4 4 4 4 4 4
10 9 10 11 11 11 11 11 12 12 12 11 11 10 10 9 7 6 6 6 7 6 6 6 5 5 6 6 8 7 8 7 6 6 6 6 5 4
9 10 11 11 11 11 11 12 12 13 13 12 11 11 10 10 9 8 7 7 7 7 7 7 6 7 7 7 6 6 6 7 6 6 6 7 6 4
9 9 10 10 11 11 11 11 12 13 13 13 12 12 11 10 9 9 9 9 9 8 8 7 7 7 8 9 7 7 6 6 6 7 6 7 7 6
8 9 9 9 10 11 11 11 12 12 13 13 13 13 12 11 10 10 10 10 9 9 8 7 8 8 9 9 8 7 8 6 6 7 7 6 5 7
7 8 8 8 9 9 10 11 12 12 13 14 13 13 13 12 11 11 11 12 11 10 11 10 9 9 8 7 8 8 7 10 8 7 7 7 7 7
6 7 7 7 8 9 9 10 11 11 12 12 13 13 13 13 13 12 12 11 11 11 11 10 8 8 8 8 9 9 8 8 9 9 9 9 7 8
6 6 6 7 7 8 9 9 11 11 12 12 12 13 13 14 13 12 12 12 12 12 11 11 10 8 8 9 9 9 10 9 8 8 7 9 8 8

GFSNE_con_lsi_018.txt.gz
Lid_Strength_Index
3 2 2 2 1 1 2 2 4 7 6 4 4 2 2 2 2 2 2 2 1 2 0 0 0 1 2 2 1 0 0 1 1 -0 -1 -1 -1 -1
2 2 1 1 1 1 2 2 3 4 6 4 4 3 3 3 2 2 1 2 2 2 0 0 0 1 1 2 2 1 0 0 1 1 -0 -1 -1 -1
1 2 1 1 2 2 2 2 3 4 6 4 4 3 3 3 2 2 1 1 1 1 1 1 1 1 1 2 2 2 1 -0 1 1 -0 -1 -1 -1
1 1 2 2 2 2 3 3 4 4 6 7 5 5 4 3 3 3 2 1 1 -0 1 2 2 1 2 2 2 2 2 1 1 2 1 0 -1 -1
1 2 2 2 3 3 3 4 4 5 5 6 6 5 5 4 4 3 3 2 1 0 1 1 1 2 2 2 1 2 1 1 2 2 2 2 2 1
2 2 3 4 4 5 5 5 5 6 5 6 7 6 5 4 4 5 4 2 2 1 1 2 2 2 2 2 1 1 1 1 2 3 3 3 4 3
2 3 4 5 6 6 6 6 7 7 7 7 8 7 6 6 6 4 4 3 2 1 2 2 2 2 2 1 1 1 2 1 1 2 3 3 4 4
4 4 4 5 6 7 7 7 7 7 8 8 7 7 7 6 4 4 4 4 5 1 2 3 1 2 2 1 4 3 2 1 1 1 3 2 4 5
5 5 6 6 6 6 7 7 6 6 6 6 8 7 7 5 4 5 4 4 4 3 3 5 3 3 2 2 4 3 3 2 1 1 2 2 4 5
5 5 5 6 6 7 7 7 6 6 6 6 7 6 5 4 4 4 4 4 3 3 2 5 3 3 3 2 3 4 3 4 2 2 2 2 3 4
5 5 6 6 7 8 8 8 7 7 6 7 7 7 6 5 4 3 4 5 5 4 3 4 4 3 3 2 2 4 4 3 4 2 2 2 3 4
5 6 7 8 8 8 8 8 9 8 8 8 7 6 5 5 4 3 4 6 5 5 2 4 4 4 5 2 2 2 2 4 4 3 3 3 3 1
6 6 7 8 9 9 9 8 9 9 9 8 8 7 5 5 4 3 3 4 5 5 3 3 4 4 4 4 3 2 2 2 2 3 4 3 3 3
7 6 7 9 9 9 9 10 10 9 8 8 8 8 6 6 4 3 3 2 3 4 3 3 4 4 5 5 5 3 3 2 2 2 2 3 4 4
6 7 9 9 9 8 9 9 10 8 9 9 9 8 8 5 4 3 3 3 3 3 4 3 4 4 5 5 6 5 4 3 2 2 2 2 2 2
6 6 8 9 9 8 8 8 8 9 10 10 9 8 7 6 5 4 4 3 4 4 4 4 4 4 5 5 6 6 5 5 3 3 3 3 2 2
8 6 6 7 8 8 7 8 8 9 10 10 9 9 8 7 7 5 5 4 4 4 4 4 4 4 4 5 6 6 6 6 5 4 4 4 3 3
7 7 7 7 8 8 8 8 8 9 10 10 10 9 9 8 8 7 6 5 6 5 5 4 4 5 5 5 5 5 5 5 5 5 5 6 5 3
7 6 6 6 7 7 8 8 8 8 10 10 10 10 10 9 8 8 8 7 7 7 6 5 5 5 7 8 6 6 6 5 5 6 5 6 6 5
6 6 6 6 6 7 7 8 8 8 9 10 10 10 10 10 9 9 8 9 9 8 8 7 6 7 8 8 7 6 8 5 5 5 5 5 5 7
5 5 5 5 5 6 6 7 8 8 9 9 9 10 10 10 10 9 9 9 9 9 9 8 7 8 6 5 7 7 6 8 7 5 5 6 7 6
4 5 5 4 5 5 5 6 7 7 8 8 9 9 9 10 11 10 10 10 9 9 9 8 7 7 7 7 7 8 7 7 8 8 8 8 7 7
3 4 4 4 5 5 5 6 6 7 7 8 9 9 9 10 10 10 10 10 10 10 9 9 8 7 7 7 8 7 8 8 7 7 7 9 8 8

GFSNE_con_lsi_021.txt.gz
Lid_Strength_Index
3 3 3 3 2 2 2 2 3 6 6 3 3 1 1 1 1 1 2 1 1 2 2 1 0 -0 0 1 2 2 2 1 0 1 1 0 -1 -1
3 3 3 2 1 1 1 1 2 3 6 3 3 2 2 3 2 2 2 1 1 1 2 1 1 1 1 1 1 2 2 2 1 0 1 1 1 -1
2 2 2 1 1 1 1 2 2 3 5 4 3 3 3 3 3 2 2 1 1 1 1 1 1 2 2 1 1 1 2 2 2 1 1 1 2 0
3 2 2 2 2 1 2 3 3 3 4 6 5 4 4 4 3 3 3 3 2 1 0 1 1 1 1 2 2 1 1 1 1 1 2 2 2 2
2 2 2 2 2 3 4 4 4 5 4 6 6 5 4 4 4 4 4 3 3 1 1 1 1 1 1 1 2 1 1 2 2 2 2 3 3 2
2 2 2 3 3 4 5 5 5 6 6 7 7 6 6 5 4 5 5 4 4 2 1 1 1 1 1 1 1 1 1 1 1 1 2 3 4 3
2 2 2 4 6 6 6 6 6 7 7 8 8 7 7 6 6 5 6 5 4 2 2 1 1 1 1 1 1 1 2 2 1 1 1 3 3 3
3 3 3 4 4 5 6 6 6 8 8 7 7 8 8 7 6 6 6 6 6 1 2 3 1 1 1 1 3 2 2 2 1 1 1 2 3 4
3 4 4 5 5 5 5 6 6 6 6 6 7 7 8 7 7 6 6 5 5 3 2 4 1 2 2 1 2 3 2 3 2 1 1 2 3 4
4 4 5 5 5 7 7 7 7 6 6 6 6 7 7 7 7 6 6 5 3 3 2 5 2 3 2 1 2 3 3 3 3 1 1 2 3 4
4 4 5 6 7 8 8 8 8 7 5 5 6 6 6 6 6 5 6 6 5 4 2 3 3 3 2 2 1 2 3 3 3 2 1 2 3 4
4 4 6 7 8 8 8 9 9 8 8 8 8 7 6 5 4 4 5 6 6 6 3 3 3 3 5 2 1 0 2 3 3 4 2 2 3 2
5 5 5 7 8 8 8 9 9 8 9 8 8 7 6 6 4 4 3 4 5 5 3 3 3 3 4 4 2 1 1 2 3 4 3 3 3 3
6 5 5 7 8 8 8 8 9 9 7 8 8 8 7 7 5 4 3 3 2 3 3 3 3 3 4 4 4 2 1 1 2 3 3 3 4 3
5 6 7 7 8 7 7 8 8 7 8 9 9 9 8 6 5 4 3 2 3 2 3 3 3 3 3 5 5 4 4 3 1 2 2 3 3 3
5 5 6 7 7 7 7 6 6 7 8 9 9 8 7 6 6 5 4 4 3 4 3 3 3 3 5 5 4 5 4 5 3 2 1 2 2 1
6 5 6 5 6 6 6 6 6 7 8 8 9 9 8 8 7 5 5 4 4 4 4 4 4 3 4 4 5 5 4 4 4 3 3 3 3 2
6 6 6 5 6 6 6 7 6 7 7 8 8 9 9 9 8 6 6 6 6 5 4 3 4 5 5 4 3 5 4 5 4 4 4 5 5 2
7 6 5 5 6 6 6 6 7 7 7 7 8 8 9 9 8 8 7 7 8 7 6 4 4 5 6 7 4 5 5 4 4 5 5 6 6 4
6 6 5 5 5 5 5 6 6 6 7 7 8 8 9 9 9 9 8 8 9 8 8 6 6 7 8 8 6 6 6 5 4 5 5 4 5 7
5 5 4 4 5 5 4 5 6 6 7 7 7 8 8 9 10 9 9 9 8 8 9 8 7 7 6 5 7 7 6 7 6 6 5 6 6 6
4 4 4 4 4 4 4 5 5 6 6 6 7 7 8 8 9 10 9 10 9 9 9 7 6 6 6 7 7 7 7 6 7 7 8 8 7 8
3 3 3 3 3 4 5 5 5 5 6 6 7 7 8 8 8 8 10 10 10 10 10 9 7 6 6 7 8 6 7 7 7 7 7 7 7 7

GFSNE_con_lsi_024.txt.gz
Lid_Strength_Index
7 6 6 5 5 5 4 5 6 9 8 5 5 4 3 4 3 4 4 2 2 2 2 2 2 2 2 2 1 1 1 2 2 2 2 2 2 1
5 5 6 5 4 4 4 4 4 6 8 5 5 5 4 4 3 4 4 2 2 2 2 2 1 1 1 1 1 1 1 1 1 2 1 2 2 2
6 6 5 4 5 4 4 4 5 5 7 6 5 5 6 6 5 5 4 4 4 2 1 1 1 1 1 1 2 2 2 1 1 1 1 1 1 1
7 6 5 4 4 4 4 5 6 6 7 8 7 7 7 6 6 6 4 3 4 2 2 2 1 1 1 1 1 2 2 1 1 1 1 2 2 2
7 6 5 5 5 6 6 7 7 6 7 8 9 7 7 6 6 6 5 5 4 2 3 2 2 2 2 1 1 1 2 2 2 1 2 2 3 3
6 5 5 5 7 7 7 8 8 9 9 9 9 9 8 7 6 7 7 6 6 4 4 3 2 2 2 1 1 1 1 2 2 2 2 2 3 3
6 5 5 5 5 6 7 9 9 10 10 10 10 9 9 9 9 8 8 8 7 6 7 5 4 2 3 2 1 1 2 2 2 2 1 2 3 3
7 6 6 4 5 5 5 5 7 10 10 10 10 10 9 9 8 8 9 10 10 6 7 6 3 3 2 1 1 2 2 2 2 2 2 2 3 3
7 7 6 5 6 7 7 7 7 6 6 8 9 8 8 8 9 10 10 10 10 7 6 7 5 4 2 2 1 2 2 2 2 2 2 3 3 4
7 6 7 7 8 8 9 9 9 9 8 7 9 9 9 8 9 8 9 8 8 7 6 8 5 5 4 3 0 1 2 2 2 2 1 1 3 4
6 6 6 7 7 7 9 10 10 9 7 7 7 6 6 6 6 8 9 9 9 7 6 6 5 5 5 5 4 1 2 2 3 2 1 1 2 3
7 6 6 7 8 8 10 11 11 10 10 10 9 7 7 7 5 5 7 8 8 8 6 6 5 4 8 6 6 6 7 2 3 3 2 1 3 3
7 7 7 7 7 7 8 10 10 9 9 9 8 8 7 7 7 7 6 5 6 7 4 5 6 5 5 5 3 4 4 4 3 3 4 3 2 3
7 7 7 6 6 7 8 8 8 8 11 11 9 9 9 9 8 7 5 4 3 5 4 4 6 6 6 5 5 4 4 5 4 4 5 3 3 4
7 6 6 6 6 7 6 7 9 10 11 13 11 9 9 8 7 7 6 4 3 4 3 4 6 5 6 7 7 6 5 5 4 3 4 5 5 5
7 7 7 8 9 8 9 7 8 9 10 12 12 10 9 8 8 7 7 6 5 4 4 4 5 5 7 7 7 8 8 7 4 5 4 4 4 4
9 9 10 8 8 9 8 8 8 8 10 12 12 11 10 9 9 8 7 7 7 6 4 4 5 5 6 5 9 8 8 8 5 4 6 6 6 5
9 11 12 11 9 9 10 10 10 10 9 10 11 11 11 10 10 9 7 8 8 8 7 5 4 6 7 6 4 8 6 8 8 6 6 9 8 7
10 11 10 10 8 8 9 9 10 10 10 9 11 11 12 11 10 10 9 9 9 8 8 6 5 6 8 8 5 4 8 5 7 10 9 9 10 6
8 8 9 9 9 9 9 9 10 11 11 11 13 10 12 12 12 11 10 11 10 9 8 8 7 8 9 8 7 7 5 7 6 10 10 10 9 6
6 7 7 7 7 8 10 10 10 12 12 14 12 9 10 10 11 12 11 11 11 9 10 10 8 7 7 7 8 7 8 5 7 8 5 7 10 10
6 6 6 7 7 7 9 9 10 11 8 10 11 12 10 13 12 11 14 12 11 11 11 9 7 6 6 7 8 8 8 10 7 6 7 8 10 11
5 5 5 5 5 6 7 8 9 11 11 11 11 11 13 14 10 10 10 12 11 12 12 11 9 7 7 8 8 7 10 11 10 10 11 7 7 7

GFSNE_con_lsi_027.txt.gz
Lid_Strength_Index
7 7 8 7 6 6 7 8 9 12 10 8 7 5 5 5 4 5 5 3 2 2 2 3 3 2 2 2 2 2 2 1 1 2 2 3 3 2
8 8 7 7 6 6 7 8 7 8 11 8 7 7 6 5 4 5 5 3 3 3 2 2 2 2 2 2 2 2 2 2 2 1 2 2 3 2
8 8 8 7 7 7 7 8 7 7 10 9 8 7 8 7 6 6 5 5 5 3 2 2 2 2 2 2 2 2 2 2 2 2 1 1 1 2
9 9 9 7 9 8 9 9 8 8 10 11 9 9 9 8 8 8 6 5 5 3 2 2 2 2 2 2 2 1 1 2 2 2 2 2 1 1
9 10 9 8 10 10 9 9 9 8 10 11 10 9 9 9 8 7 7 7 5 3 3 3 3 3 2 2 2 2 2 1 2 2 2 2 2 2
8 8 8 9 10 9 8 9 9 10 10 11 10 10 10 8 8 9 9 7 7 6 5 5 4 4 3 3 3 3 2 2 1 2 2 2 2 3
9 8 8 8 6 7 8 9 10 10 11 11 11 10 10 10 10 8 9 9 9 8 8 7 7 6 5 4 4 3 2 2 2 2 2 2 2 3
9 10 9 7 6 5 5 6 7 10 11 12 11 11 10 10 8 10 10 11 12 9 10 9 8 8 6 3 3 3 2 2 2 2 2 2 2 3
9 9 8 6 7 8 7 7 8 7 8 10 11 11 11 10 10 10 11 11 11 10 10 10 9 8 5 3 2 1 1 1 2 2 2 2 2 3
8 8 8 9 8 8 9 9 10 10 9 9 11 11 10 9 9 9 9 9 9 9 9 10 8 7 5 3 2 1 0 1 2 3 2 1 2 3
7 7 7 8 7 6 9 9 10 10 8 7 7 7 6 6 6 7 8 9 11 10 8 8 8 8 6 5 4 1 1 1 3 3 2 1 2 3
8 8 6 8 7 7 9 10 12 10 10 10 9 9 7 7 6 8 8 9 9 9 7 8 7 7 8 6 5 5 5 1 2 3 2 2 2 3
8 8 8 6 6 6 6 10 11 9 9 9 9 9 8 8 8 8 8 8 8 7 5 6 7 8 7 6 4 2 5 4 4 3 3 3 3 4
8 8 8 5 5 5 6 7 6 7 13 12 12 11 10 9 8 8 7 7 6 5 4 4 7 7 8 6 5 3 4 5 4 3 4 4 3 3
8 7 5 5 5 6 5 5 7 10 13 15 13 12 11 9 8 8 8 7 6 4 3 4 6 6 6 7 7 6 5 6 4 4 4 5 5 5
8 8 8 8 10 9 9 7 8 9 10 13 13 12 11 11 10 9 10 8 8 7 4 4 5 5 7 7 6 7 7 8 4 4 4 4 5 5
11 11 10 11 10 9 10 9 10 10 11 13 14 13 11 11 10 9 9 9 10 9 7 6 3 5 6 6 9 9 9 9 6 4 5 5 5 5
7 13 14 15 13 10 11 11 12 11 11 12 14 13 13 13 11 10 9 10 10 9 9 7 6 6 6 6 5 8 9 7 9 6 5 7 6 5
13 13 15 14 12 9 10 10 12 12 12 12 14 15 14 12 12 11 10 10 11 10 9 7 8 11 12 11 6 4 9 7 6 9 8 8 7 6
10 10 11 11 10 9 9 11 12 14 13 13 16 17 17 15 15 13 12 13 12 10 9 9 9 8 10 11 9 8 4 9 6 10 10 8 8 6
8 8 8 8 8 8 8 10 14 15 16 18 17 16 16 14 15 12 14 13 13 11 11 11 9 7 6 7 9 9 10 5 6 9 7 10 11 11
7 7 7 7 7 7 6 9 12 15 16 16 16 18 19 17 17 16 15 16 12 12 12 11 9 7 6 6 8 10 8 12 8 6 6 7 10 13
6 6 6 6 6 8 8 8 8 10 12 13 14 16 20 16 16 14 15 12 13 12 12 12 10 8 7 8 8 8 11 11 9 9 10 6 6 6

GFSNE_con_lsi_030.txt.gz
Lid_Strength_Index
9 9 9 8 8 8 7 7 10 14 14 12 11 8 7 6 5 5 6 4 3 3 3 3 3 3 2 2 2 2 2 2 1 2 2 3 4 4
9 9 9 9 7 7 8 9 9 10 13 12 11 9 7 6 6 6 7 4 4 4 3 3 3 3 3 3 3 2 2 2 1 2 2 2 3 4
9 9 8 8 8 9 10 10 10 10 13 11 10 9 9 9 8 7 7 7 7 4 4 4 3 4 3 3 3 2 2 2 2 2 2 2 2 2
9 9 8 7 10 10 10 11 11 11 11 12 11 10 10 9 9 9 7 6 7 5 4 4 4 4 3 3 3 3 2 2 2 2 2 2 2 2
9 9 9 10 11 10 11 11 11 9 10 11 11 10 10 10 10 9 9 8 6 5 5 5 5 3 3 3 3 3 3 2 2 2 2 3 3 3
8 9 9 9 10 11 11 11 10 10 10 10 10 10 10 9 10 11 9 8 8 7 6 6 5 5 5 5 4 3 3 2 2 2 2 3 3 3
10 9 9 8 6 8 9 10 10 10 10 10 11 10 11 11 11 10 10 10 9 9 9 9 8 8 8 6 5 4 4 3 3 3 3 3 3 3
9 10 9 7 6 6 6 6 7 10 11 11 11 12 12 12 11 11 11 11 12 9 10 10 9 9 8 8 6 4 4 4 4 4 3 3 3 3
9 9 8 7 7 8 7 7 8 7 8 10 12 12 12 11 11 11 10 10 11 9 9 10 10 10 8 7 5 5 4 3 3 3 3 4 4 3
8 8 9 9 8 8 9 9 9 9 9 9 10 11 10 9 9 8 8 8 8 9 9 11 10 10 8 7 4 3 2 2 1 2 3 4 4 2
7 7 8 9 7 6 8 9 9 9 7 7 7 7 7 6 6 7 9 10 11 10 9 8 10 10 9 8 6 2 2 1 1 1 3 3 3 2
8 8 6 8 6 6 9 9 11 10 9 9 9 9 8 8 6 8 8 10 10 11 9 8 8 9 10 8 7 7 4 2 1 1 2 3 2 2
8 9 8 6 6 5 5 9 10 8 8 8 9 9 9 9 8 8 8 9 10 10 7 6 7 7 8 8 7 5 2 2 3 3 2 2 2 2
8 8 8 6 5 5 6 6 5 7 12 12 11 11 11 10 9 8 8 8 8 8 6 5 5 7 9 9 7 4 3 3 3 4 4 3 3 3
7 7 6 5 5 5 5 5 7 10 13 16 12 12 11 9 8 8 8 8 8 7 5 4 4 6 6 7 7 6 5 5 4 3 3 4 4 5
7 7 8 8 10 9 9 7 8 9 10 12 13 13 11 11 11 9 9 9 9 9 6 6 5 5 7 6 7 7 7 7 6 4 3 4 4 5
8 11 11 11 10 9 10 9 10 11 12 14 14 13 12 11 11 10 10 9 11 11 9 7 5 4 5 6 10 8 8 8 7 5 4 4 5 4
8 9 9 10 11 10 11 11 12 12 11 12 15 13 14 14 12 10 10 11 11 11 10 8 9 8 8 6 5 8 9 7 6 6 5 5 6 5
7 7 8 10 11 10 10 10 11 12 12 12 12 15 15 13 14 12 12 11 11 11 10 9 9 12 10 13 7 4 7 6 8 9 8 7 6 6
8 9 10 11 11 10 10 10 11 13 13 13 15 18 20 16 15 14 13 16 13 11 11 10 10 10 9 10 10 8 4 10 7 7 10 7 6 6
7 8 9 9 9 9 9 11 12 12 13 16 17 17 20 16 16 15 16 15 15 11 12 12 10 8 7 6 11 10 8 5 5 6 9 8 9 10
6 7 7 7 8 8 8 8 10 10 11 14 16 18 20 19 18 17 18 15 14 14 12 11 9 8 7 7 9 12 8 12 8 5 5 7 11 12
5 6 6 6 6 6 7 8 8 8 9 10 12 14 20 18 17 18 17 12 13 14 13 12 11 9 9 8 8 10 8 11 11 10 11 6 6 6

GFSNE_con_lsi_036.txt.gz
Lid_Strength_Index
9 9 9 9 9 9 8 8 7 10 9 9 9 8 8 8 7 7 8 6 5 5 4 4 4 3 3 3 3 3 2 2 2 1 1 1 1 1
10 10 10 9 9 8 7 7 6 7 9 9 8 8 8 8 7 7 7 5 5 4 4 4 4 4 4 4 4 4 4 3 3 2 2 2 1 1
10 10 10 9 8 8 8 8 8 8 9 8 9 8 9 9 8 8 7 7 6 5 4 4 4 5 5 5 5 5 5 4 3 3 3 2 2 1
10 10 9 7 8 8 8 9 9 9 10 11 10 9 9 8 8 8 7 6 6 5 5 5 5 5 6 6 6 6 5 4 3 3 3 3 2 2
10 10 9 9 9 9 9 9 9 9 10 10 10 9 9 8 8 7 7 7 6 6 6 6 6 6 6 6 5 5 5 4 4 4 3 3 3 2
9 9 8 9 9 9 9 9 10 10 10 10 10 10 9 8 8 9 9 8 9 8 7 6 6 6 6 5 5 5 5 5 4 4 3 3 3 3
9 8 8 8 6 7 9 10 10 11 10 10 11 10 10 10 10 9 10 10 9 8 8 7 7 7 7 6 6 5 5 5 5 5 4 4 3 3
10 9 9 6 6 5 5 7 9 10 10 11 11 11 11 10 10 10 11 11 11 7 8 8 7 7 7 6 6 5 5 5 4 4 4 4 4 4
10 9 9 8 7 8 6 6 7 6 7 9 11 10 11 10 10 10 10 10 10 8 8 9 8 8 7 6 6 5 5 4 4 4 4 4 4 4
9 9 9 9 8 8 9 9 9 9 8 8 9 9 9 8 8 8 8 8 8 8 8 10 8 8 7 6 6 5 5 4 4 4 4 4 4 4
9 8 8 9 7 6 9 10 9 9 7 6 6 6 5 5 6 8 9 10 11 10 8 9 8 8 7 7 6 5 5 4 4 4 4 4 4 4
8 7 6 7 7 6 8 9 10 9 9 9 8 7 6 7 6 7 8 10 10 11 8 9 9 8 9 7 7 5 5 5 3 3 3 2 3 4
8 7 7 6 5 5 6 9 9 8 9 9 8 8 8 8 8 7 7 8 10 10 8 7 8 9 8 8 7 6 5 4 3 2 2 2 2 2
8 8 7 6 5 5 5 6 6 7 9 9 10 9 9 9 8 8 7 7 7 8 7 7 9 8 8 8 8 6 5 3 3 3 2 2 2 2
7 7 6 5 5 5 5 5 6 7 9 10 10 10 10 9 8 8 7 7 7 7 6 6 7 7 8 8 7 6 6 4 3 4 3 3 3 3
7 6 6 6 6 5 6 5 5 7 8 9 10 10 11 10 10 9 10 9 9 9 8 6 7 7 8 8 6 6 5 6 4 4 4 4 3 3
9 6 6 7 7 7 7 7 7 8 9 10 12 11 11 11 10 10 10 10 11 11 10 8 7 7 7 7 7 6 6 6 5 4 5 5 4 4
7 7 8 8 8 7 7 7 7 8 8 9 11 11 11 11 11 10 10 11 11 10 10 9 9 10 8 8 5 6 6 6 5 5 5 6 6 5
6 6 7 7 8 7 7 7 8 8 8 9 10 11 12 12 12 11 11 11 11 10 10 9 10 11 12 11 8 4 6 5 6 6 6 5 6 6
6 6 6 6 6 6 7 7 7 8 10 10 11 12 13 12 13 12 11 13 12 11 10 10 10 11 11 11 10 8 5 6 5 6 7 6 5 5
6 6 5 5 5 6 6 6 7 8 10 12 11 12 14 12 13 12 12 15 14 10 11 11 10 9 8 7 10 9 6 5 4 5 6 7 7 6
5 6 5 5 5 6 6 6 7 8 10 12 12 12 12 12 12 13 14 14 11 11 11 10 9 9 8 7 8 9 7 7 6 5 5 5 7 8
9 7 6 6 5 5 5 6 7 8 8 9 10 11 12 12 12 12 13 13 12 11 11 11 10 9 9 8 8 7 8 7 7 8 7 6 5 5

GFSNE_con_lsi_039.txt.gz
Lid_Strength_Index
5 5 5 5 5 5 5 5 6 9 8 6 5 3 2 2 3 3 3 4 5 4 4 4 3 3 3 3 3 2 2 2 2 2 1 1 1 1
5 6 6 6 5 4 4 4 4 6 8 5 4 3 2 4 4 4 4 5 5 5 4 4 4 3 3 3 3 3 3 3 3 3 2 2 2 1
6 6 6 6 6 5 3 3 4 5 6 5 3 3 4 4 4 4 4 4 4 4 4 4 4 4 4 4 4 4 4 4 4 4 3 3 2 2
7 7 7 6 6 4 4 4 4 4 5 6 4 5 5 4 4 5 5 5 4 4 5 4 4 4 4 4 4 4 4 5 5 5 4 4 3 3
7 7 6 6 4 4 4 4 4 4 4 5 6 5 5 5 5 5 5 4 5 5 5 5 5 5 5 5 4 5 5 5 5 5 5 5 4 3
6 6 5 4 4 4 4 4 4 5 5 6 6 6 6 5 6 7 6 5 5 5 5 5 5 5 5 5 5 5 5 5 5 5 5 4 4 4
6 5 4 4 5 4 5 4 4 5 6 6 7 7 6 6 7 6 7 6 5 5 5 5 5 4 4 4 4 5 5 5 5 4 4 4 4 4
6 5 4 5 5 6 6 6 5 5 6 7 7 7 7 6 6 6 7 7 8 4 5 6 5 5 4 4 4 5 5 5 4 4 4 4 4 4
5 5 5 6 6 5 5 5 6 7 6 5 7 6 6 7 6 7 6 7 7 6 6 7 5 5 4 4 4 4 5 4 4 4 4 4 4 4
5 4 4 4 4 5 5 5 5 5 5 6 5 5 5 6 5 6 6 6 6 5 5 8 5 5 4 4 4 4 4 4 4 4 4 4 4 5
5 5 5 4 4 5 5 6 5 5 6 6 6 5 6 6 5 5 6 7 8 7 5 6 6 6 4 4 3 4 5 5 4 5 4 5 4 4
5 5 6 4 5 5 5 5 6 5 5 6 5 5 5 5 5 5 5 7 8 8 5 7 7 7 7 4 4 3 3 4 4 4 4 3 4 4
6 5 3 5 5 5 5 5 5 4 5 5 5 5 5 5 4 4 5 6 7 7 5 6 7 7 7 7 5 4 3 3 2 2 2 2 2 2
5 4 3 5 5 5 5 5 5 6 5 5 5 6 5 5 4 4 4 5 5 6 5 5 7 7 7 7 7 4 3 2 1 1 1 1 1 2
3 3 4 5 5 5 5 4 5 5 5 5 5 5 5 4 4 5 5 4 5 5 6 5 5 6 6 8 7 6 5 3 1 1 1 2 2 2
5 4 4 5 5 5 5 4 4 4 4 4 5 4 4 5 5 5 5 6 6 6 5 5 5 5 6 6 6 6 4 5 3 2 2 3 3 3
5 5 5 5 5 6 5 4 4 4 5 4 4 5 5 5 5 5 5 6 7 7 6 5 5 5 6 6 6 5 4 4 3 3 3 4 3 4
5 5 5 5 5 5 6 5 4 5 5 4 5 5 5 5 5 5 6 6 7 7 7 6 6 6 6 5 5 5 4 5 4 4 3 4 4 4
6 5 5 4 4 5 5 5 5 4 4 4 5 5 5 5 6 6 6 7 7 7 7 6 7 7 9 9 5 5 5 5 5 4 4 4 5 4
4 5 4 4 4 5 5 5 5 4 4 4 5 4 4 5 5 6 6 7 7 7 7 6 7 7 8 8 8 5 5 5 5 5 5 4 3 5
10 8 4 3 3 4 4 4 4 4 4 5 5 5 5 5 6 5 6 8 8 8 8 7 7 7 6 6 7 6 3 5 4 5 5 5 4 5
11 10 9 8 3 3 4 3 4 4 4 5 5 5 5 5 5 6 6 6 7 7 7 6 6 6 6 6 6 6 4 4 4 5 5 5 6 6
12 12 11 10 9 7 7 4 4 4 4 5 5 5 5 6 5 5 5 7 7 7 7 7 7 6 7 7 7 6 6 5 4 5 5 6 6 6

GFSNE_con_lsi_042.txt.gz
Lid_Strength_Index
4 4 4 4 5 5 5 6 7 9 7 5 5 3 3 2 2 2 2 2 3 4 4 4 3 3 3 2 2 2 2 1 2 2 2 2 2 3
5 5 5 5 5 5 5 6 5 6 7 4 4 3 2 2 2 2 2 3 3 3 4 4 4 3 3 3 3 2 2 2 2 2 2 2 2 2
5 6 6 5 5 6 6 5 5 4 6 4 3 3 3 3 2 2 2 3 3 3 3 4 4 4 4 3 3 3 3 3 3 3 2 2 2 2
5 5 6 6 5 5 5 5 4 3 5 6 4 3 2 2 2 3 3 4 3 3 4 4 4 4 4 4 4 4 4 3 3 3 3 3 3 2
5 5 6 5 6 5 4 4 4 4 4 4 5 3 3 3 3 3 4 3 3 3 3 3 4 4 4 4 4 4 4 4 4 4 4 4 4 4
5 5 5 5 5 4 4 3 4 4 4 4 4 4 4 3 4 5 5 4 4 3 3 3 3 3 4 4 4 4 3 3 4 4 4 4 5 5
5 5 5 4 4 4 4 3 3 4 4 4 4 4 5 5 5 4 6 4 4 3 3 3 3 3 3 2 3 3 3 4 4 4 4 4 4 4
6 5 4 4 4 5 6 5 4 3 3 4 4 5 5 4 4 5 5 5 6 2 4 4 3 3 3 2 3 3 3 4 4 4 4 4 4 4
6 5 5 4 4 3 5 6 6 5 5 3 4 4 4 4 4 5 5 5 5 4 4 5 3 4 3 3 3 3 3 4 4 4 4 4 4 4
5 5 4 3 3 3 3 3 2 2 3 4 4 3 3 3 4 4 4 4 4 3 3 6 3 4 3 3 3 2 3 3 4 4 4 4 4 4
6 5 4 4 4 4 3 2 2 2 3 4 4 4 5 6 5 4 5 5 6 5 3 5 4 5 4 4 3 3 2 3 3 3 4 4 4 4
5 5 6 5 5 5 3 3 3 3 2 3 4 4 4 4 5 4 4 5 5 6 4 5 5 5 6 4 4 3 2 2 3 3 3 3 4 4
6 5 4 5 5 4 4 3 3 2 3 3 3 3 3 3 3 3 3 4 5 5 3 4 5 6 6 6 4 3 2 2 2 2 2 2 2 2
6 4 3 4 4 4 4 4 4 4 3 3 4 4 3 3 2 2 2 2 2 4 3 3 5 6 7 7 6 4 3 2 2 2 0 0 1 1
5 5 5 5 4 4 5 5 5 3 3 4 4 4 3 2 1 2 3 3 3 3 4 3 4 5 6 7 7 6 5 3 1 1 0 0 1 3
7 5 5 5 5 4 4 3 4 3 3 3 3 3 2 2 3 3 4 3 4 4 3 3 4 4 5 5 6 6 5 5 2 2 1 1 2 3
8 6 6 5 5 4 3 3 3 3 3 3 3 3 3 3 4 3 4 4 5 5 5 4 3 3 4 5 6 6 5 3 3 3 3 3 2 3
7 6 6 5 4 3 3 4 4 4 3 3 3 3 3 3 4 4 4 4 5 5 5 4 4 5 5 4 3 5 4 4 4 3 3 3 4 3
9 8 6 4 3 3 3 3 3 3 3 3 3 3 3 3 4 4 4 5 5 5 5 4 5 5 7 8 4 5 5 4 4 4 3 3 4 4
9 9 8 7 6 4 3 3 3 2 3 3 3 3 3 3 4 4 4 5 5 5 5 5 4 5 6 7 7 5 4 4 5 5 5 3 2 4
10 10 9 8 7 7 5 2 2 3 3 3 3 3 3 3 4 4 4 5 5 5 6 6 4 6 5 4 6 5 3 5 4 5 5 5 4 4
11 11 10 9 9 8 7 5 4 3 3 3 3 3 3 3 3 4 4 5 5 5 5 4 4 4 4 6 6 5 4 3 4 5 5 6 6 7
12 11 11 10 9 9 8 8 7 5 3 3 3 3 3 3 3 3 4 4 5 5 6 5 5 5 5 5 6 5 5 4 3 3 4 6 6 6

GFSNE_con_lsi_045.txt.gz
Lid_Strength_Index
5 3 4 4 4 4 5 5 7 9 9 6 6 3 3 3 3 3 2 2 3 3 3 3 3 3 3 2 2 2 1 1 1 1 1 1 1 1
5 5 4 4 5 5 5 5 6 7 9 7 5 3 3 3 2 3 2 2 2 2 2 3 4 3 3 3 2 2 2 2 2 2 2 1 1 1
5 5 5 5 5 5 5 6 6 6 7 5 4 3 3 3 3 2 2 2 2 2 2 3 3 3 4 3 3 3 3 3 3 2 2 2 1 1
6 6 6 5 5 5 5 5 5 5 6 6 4 4 3 2 1 2 2 2 2 2 2 3 3 3 3 3 3 3 3 3 3 3 3 2 2 2
7 6 5 5 5 5 5 4 5 5 4 5 5 3 3 2 2 2 2 2 3 2 2 2 2 3 3 3 3 3 3 3 3 3 3 3 3 3
6 5 4 5 5 4 4 4 4 4 4 4 4 4 3 2 2 3 3 2 3 3 2 2 2 2 2 2 2 2 3 3 3 3 3 3 3 4
6 5 4 5 5 5 4 4 3 4 4 4 4 3 3 3 3 3 4 4 3 3 3 2 2 2 2 1 1 1 1 2 3 3 3 3 3 3
7 5 5 6 5 7 7 6 5 4 3 3 3 3 2 2 2 3 4 5 7 2 3 3 2 3 2 2 2 3 3 3 3 3 3 3 4 4
6 6 6 6 6 5 6 7 6 6 5 3 3 2 2 2 2 4 4 5 5 3 3 4 2 3 2 2 2 2 2 2 2 3 3 3 4 4
6 6 6 6 5 5 4 3 3 2 2 3 2 2 1 1 2 3 3 4 4 3 2 5 3 3 2 2 2 2 2 2 2 2 3 3 3 4
7 6 6 6 6 6 5 4 3 2 1 2 2 2 4 5 5 3 5 5 5 5 3 4 4 4 3 3 2 3 3 3 2 2 2 3 3 4
7 6 7 7 7 7 4 4 4 2 1 1 1 2 3 3 5 4 4 5 5 5 3 5 5 5 6 3 3 2 2 2 2 2 2 2 3 3
9 8 7 7 7 6 6 4 4 2 3 2 1 2 2 2 2 3 3 3 4 4 3 3 5 5 5 6 4 3 3 3 2 2 2 2 2 3
10 8 7 7 7 6 6 5 5 5 3 3 3 2 2 2 2 2 2 2 1 2 2 3 4 5 5 6 6 4 3 2 2 3 2 1 1 1
10 10 9 8 7 6 6 5 5 4 4 4 3 2 2 1 1 2 2 1 1 1 3 2 3 4 4 6 6 5 5 4 2 2 1 2 2 2
11 9 9 9 8 7 6 4 4 4 4 3 3 1 0 2 2 2 3 2 3 3 2 2 3 3 5 5 5 5 5 6 3 2 2 2 1 2
12 9 7 6 5 5 4 4 3 3 4 3 3 2 2 2 2 2 2 3 4 4 4 3 2 2 3 4 5 5 5 4 2 3 3 3 2 4
10 9 8 7 7 7 5 5 3 3 3 4 2 2 2 2 3 2 2 3 4 4 4 3 3 4 4 3 3 4 4 4 3 3 3 4 3 4
10 9 9 8 8 8 6 6 6 3 3 3 3 2 2 2 3 3 3 4 4 4 4 3 4 5 7 7 4 4 5 4 4 4 3 4 4 4
10 10 9 9 9 9 8 7 6 5 2 2 2 2 2 2 3 3 3 4 4 4 5 4 5 5 6 6 7 5 4 4 5 5 5 4 3 4
10 10 10 10 10 9 9 7 7 7 5 2 2 2 2 3 3 3 3 4 4 5 5 5 4 5 4 4 6 5 3 4 4 5 5 5 5 5
11 11 11 10 10 10 9 8 8 8 6 6 2 2 2 2 3 3 3 4 4 4 5 4 4 4 5 5 6 5 4 4 4 5 5 6 6 8
12 12 11 11 10 10 10 9 9 8 8 6 5 4 2 3 2 2 3 3 4 4 4 5 5 4 5 5 5 5 5 4 3 4 4 5 6 6

GFSNE_con_lsi_048.txt.gz
Lid_Strength_Index
6 7 7 5 5 5 6 7 9 12 11 9 8 6 6 6 6 7 7 4 4 4 4 3 3 2 3 2 2 2 2 1 1 1 1 1 0 0
7 7 6 6 5 5 7 7 8 9 11 9 8 7 7 6 5 6 6 3 3 3 2 2 1 2 3 3 3 3 2 2 2 2 2 1 1 0
6 6 6 6 6 7 7 7 8 8 10 9 8 8 8 7 7 6 5 6 5 2 1 1 1 2 3 3 3 3 2 2 2 2 2 2 1 1
6 6 6 6 7 6 7 8 8 8 9 10 9 9 8 7 7 7 4 4 5 2 1 1 1 2 2 2 2 2 2 2 2 2 2 2 2 1
6 6 6 6 6 6 6 7 7 6 7 9 10 9 8 8 7 6 5 5 3 1 1 1 1 1 2 1 1 1 1 1 2 2 3 3 2 2
6 6 6 6 6 6 6 7 7 7 7 8 9 9 9 7 6 7 7 6 5 3 2 3 2 1 1 1 1 1 1 1 1 2 2 2 2 3
7 6 6 6 6 6 6 8 8 8 8 9 10 9 8 7 7 6 6 6 6 6 6 6 5 5 5 2 1 0 0 0 1 1 2 2 2 3
8 7 7 6 6 7 7 7 7 8 8 8 7 7 7 6 6 5 6 8 8 5 7 7 6 6 4 4 2 1 2 1 1 2 2 2 2 2
8 8 7 7 8 7 8 8 8 8 7 6 7 6 6 5 5 5 6 6 7 7 7 8 6 6 4 3 1 1 1 1 1 1 2 2 2 2
8 8 9 9 8 8 9 9 9 7 6 5 6 5 4 3 4 4 4 5 7 6 6 8 6 7 5 5 1 1 1 2 2 2 2 2 2 2
8 9 8 9 8 8 9 9 9 8 5 4 3 3 2 3 4 5 7 6 8 7 6 7 6 7 7 7 6 2 2 2 2 2 2 2 2 2
11 10 10 10 9 9 10 10 10 8 6 6 5 4 4 4 4 4 5 5 6 8 5 6 6 8 10 7 6 6 6 3 3 2 2 2 2 3
14 13 13 11 10 10 10 11 10 8 7 6 5 5 4 3 3 4 3 4 6 6 4 4 6 7 9 8 8 7 6 6 6 4 2 2 2 3
15 14 13 11 11 11 10 9 8 7 6 6 6 5 5 3 3 3 3 4 4 4 3 3 6 7 9 9 8 8 7 6 6 6 6 3 3 2
14 13 13 11 11 10 8 8 8 8 7 7 7 6 4 3 2 2 2 2 3 3 2 2 6 6 7 8 8 8 8 6 6 7 5 6 5 3
15 14 14 12 11 9 8 7 6 6 6 6 5 4 4 5 3 2 3 3 4 4 3 3 4 4 7 7 7 7 7 7 6 6 7 6 4 4
16 15 13 13 12 11 10 9 7 8 8 5 5 4 5 6 3 2 3 4 5 6 5 4 4 4 5 5 8 7 7 6 6 7 6 6 4 6
15 15 15 14 13 12 11 10 9 9 8 8 4 4 5 4 4 3 3 4 5 5 5 5 5 6 6 6 4 6 5 7 8 5 5 5 5 6
16 15 15 14 13 12 11 11 11 9 9 8 6 5 5 5 5 4 4 4 4 5 4 5 6 9 11 12 7 3 8 7 5 8 7 6 6 4
13 13 14 13 12 12 12 12 11 11 10 9 8 5 7 6 7 5 4 4 5 5 5 5 6 6 9 11 12 9 3 9 7 6 9 6 4 4
13 13 14 13 13 13 13 12 12 11 10 9 9 7 4 4 6 6 5 5 4 4 5 6 6 6 7 8 13 11 8 3 5 8 9 9 8 7
14 14 14 13 13 13 13 13 12 12 11 10 9 8 8 6 5 7 5 4 4 5 5 6 5 6 7 7 9 12 7 6 5 4 5 6 10 12
15 14 14 14 14 14 13 14 13 12 12 11 10 9 9 9 7 6 5 4 4 5 5 7 6 6 7 7 8 9 8 7 5 6 7 5 5 5

GFSNE_con_lsi_051.txt.gz
Lid_Strength_Index
8 6 7 7 6 6 5 7 9 13 13 11 10 8 8 7 7 6 8 5 5 5 4 4 4 3 2 3 2 2 2 2 1 1 1 1 0 0
7 7 6 5 5 5 5 7 8 10 12 10 10 9 8 7 7 7 7 5 4 5 4 3 2 1 1 2 2 2 2 2 2 1 1 1 1 1
7 7 7 6 6 6 7 8 9 9 11 10 10 9 9 9 7 7 7 7 7 4 4 3 2 1 1 1 1 2 2 2 2 1 1 1 1 1
8 7 7 6 7 8 8 8 9 8 9 10 10 10 9 9 9 9 7 6 6 4 2 2 1 1 1 1 1 1 1 2 1 1 1 1 1 1
7 7 7 7 7 7 6 7 6 6 7 8 8 10 8 9 9 9 8 7 6 3 2 1 1 0 0 1 1 1 1 1 1 1 1 1 1 1
7 7 7 7 7 7 7 8 8 10 9 8 8 8 10 7 8 8 8 7 7 4 3 3 2 1 0 0 0 0 0 0 -0 0 1 1 1 2
7 7 7 7 7 8 7 8 10 10 9 10 10 11 11 10 9 7 7 7 6 6 6 7 6 6 5 3 2 1 1 0 0 -0 0 1 1 2
9 8 7 7 8 8 8 8 9 10 11 11 10 10 9 11 9 8 7 7 7 5 6 7 6 6 6 6 2 1 1 1 1 1 1 1 1 2
9 9 9 7 9 10 10 10 10 9 9 11 11 10 9 7 8 7 5 5 5 4 7 8 7 7 6 4 1 0 1 1 1 1 1 1 2 2
10 10 11 11 11 10 11 12 11 10 10 9 10 9 7 6 5 4 4 4 5 6 6 8 7 7 6 6 2 1 1 1 1 1 1 2 2 2
11 12 12 12 11 11 13 14 14 13 10 8 7 6 6 5 4 5 7 6 7 7 5 7 6 6 7 7 5 2 2 2 2 2 2 2 2 2
14 13 12 13 12 12 14 15 15 15 14 12 10 8 6 5 4 4 5 7 7 7 5 7 7 7 10 7 6 6 7 4 3 2 2 2 2 4
16 16 16 13 13 13 12 14 14 12 12 11 9 8 7 5 4 5 5 4 5 6 5 5 7 8 8 8 7 6 8 7 7 5 4 3 3 2
17 16 16 14 14 13 13 11 11 11 10 10 9 8 7 6 5 4 4 4 3 3 3 4 7 7 8 9 10 7 8 7 8 7 6 4 3 3
17 16 15 15 14 14 13 12 12 11 10 10 10 8 6 6 4 4 4 4 4 4 3 3 5 5 6 7 9 8 9 8 7 8 8 7 7 5
17 17 17 16 16 15 15 13 12 12 11 11 10 9 6 5 5 4 4 4 5 5 3 3 4 4 7 7 7 8 8 9 7 8 6 10 7 3
18 19 18 17 16 16 15 14 12 12 12 11 11 10 9 5 5 5 4 4 5 8 6 4 3 4 5 5 8 7 7 8 7 6 8 10 6 4
18 19 21 22 19 17 16 15 14 13 12 12 12 11 10 7 5 4 3 4 5 6 6 5 5 6 6 5 4 7 9 8 8 7 7 9 7 5
20 19 22 23 20 16 15 15 15 13 12 12 12 11 10 9 5 4 4 4 5 5 6 4 5 8 8 11 7 3 8 7 8 9 8 9 7 5
17 19 20 19 17 15 15 15 14 14 14 13 13 12 11 9 10 5 4 4 5 5 5 4 5 6 8 10 12 10 3 8 8 11 10 9 6 4
18 18 19 18 16 16 19 19 18 15 15 15 14 12 11 10 10 9 5 5 4 4 5 5 4 5 6 8 14 13 11 3 5 8 10 11 10 9
20 19 17 17 19 18 21 20 17 16 15 15 14 14 12 11 11 10 9 5 5 5 4 4 5 5 6 8 11 16 10 8 4 4 5 6 11 13
21 19 19 22 22 21 16 18 17 15 16 15 15 14 13 12 10 10 10 9 8 5 4 5 5 5 6 7 9 11 9 9 6 6 7 4 4 5

GFSNE_con_lsi_054.txt.gz
Lid_Strength_Index
6 6 6 6 6 5 6 6 8 11 10 10 10 8 8 8 7 6 6 4 5 5 4 3 3 3 3 3 2 2 2 2 1 1 1 0 0 -0
7 6 8 6 6 7 6 6 7 9 11 11 10 9 8 8 7 7 7 5 5 5 5 4 3 3 2 1 0 1 1 1 1 1 1 1 0 0
7 7 7 6 7 7 7 7 8 9 10 10 10 10 10 10 8 8 7 7 7 5 5 4 4 3 1 0 -0 -0 0 0 1 1 1 1 0 0
7 6 6 5 7 7 7 9 9 9 10 10 11 11 10 9 9 10 8 7 7 6 4 3 3 2 2 0 0 -0 0 0 1 1 1 1 0 0
7 6 6 7 7 8 8 9 8 7 8 9 9 9 10 10 9 9 9 9 7 4 4 3 1 1 0 1 0 -0 -0 0 0 0 0 1 1 1
6 7 7 7 8 9 9 10 9 11 11 11 10 10 11 10 11 10 10 11 9 6 3 3 1 1 0 -0 -0 -0 -1 -0 -0 -0 0 1 1 1
7 7 7 7 8 8 9 10 11 12 11 12 12 12 13 13 13 12 12 9 9 8 6 6 4 4 3 0 1 -0 -1 -1 -0 0 1 0 0 1
8 8 8 8 9 10 10 11 12 14 14 15 14 14 13 13 12 11 11 12 10 9 7 6 5 4 4 4 2 1 1 0 0 0 1 1 1 1
9 9 9 10 12 12 12 12 12 11 11 14 14 14 13 12 11 11 12 10 8 6 7 6 6 5 3 4 2 1 0 0 0 0 0 1 1 2
11 12 13 14 13 13 15 16 16 15 15 14 14 12 11 10 10 10 10 8 6 5 5 7 8 7 5 6 3 1 0 1 1 1 1 2 2 2
13 13 14 15 13 13 15 16 16 15 13 12 11 11 10 10 8 9 9 9 9 6 7 6 8 6 6 6 5 1 2 1 2 1 2 2 2 2
15 15 14 15 14 14 16 16 16 16 15 14 12 12 11 11 8 8 8 8 7 9 7 7 7 6 9 7 7 6 6 3 2 2 2 3 2 4
17 16 16 15 15 14 13 15 15 15 14 14 14 13 12 11 9 8 7 6 6 6 6 5 7 7 7 8 8 7 7 7 7 5 4 3 3 3
17 16 16 15 14 14 14 14 14 15 16 16 16 15 14 12 10 7 6 5 4 4 3 4 6 7 9 9 9 7 8 8 8 7 7 5 4 3
17 17 16 15 15 15 15 15 16 16 17 17 16 16 13 11 10 7 5 4 3 4 2 3 6 6 7 8 8 8 8 7 8 8 9 9 9 10
17 17 17 16 16 16 16 16 16 16 17 17 16 14 12 11 10 7 5 4 5 4 3 3 4 4 7 7 7 8 8 9 8 8 8 10 10 10
18 19 19 18 18 18 17 17 17 17 17 16 15 14 13 12 11 9 6 5 6 6 5 4 3 3 4 4 8 7 8 8 8 8 8 11 10 9
18 19 21 22 20 19 19 19 19 18 17 15 15 15 14 13 13 10 9 5 5 4 4 5 4 5 5 5 4 7 8 9 8 7 7 11 9 7
19 20 22 22 21 19 19 19 19 18 16 16 16 16 15 14 13 11 10 8 5 4 4 4 4 5 9 11 6 3 8 8 9 10 8 10 11 6
18 19 20 20 20 20 19 19 18 18 18 16 18 17 16 15 14 12 11 11 7 4 4 4 4 5 7 9 10 10 4 9 10 9 10 10 8 4
19 19 19 20 20 20 22 22 24 22 21 23 20 17 18 16 14 12 12 11 10 5 4 5 4 3 5 7 12 13 11 5 5 7 9 9 11 9
20 20 20 20 22 21 23 23 23 25 20 21 19 22 19 16 15 13 13 12 11 9 8 3 3 4 6 7 10 16 12 12 5 3 4 6 10 12
22 21 22 23 24 24 20 23 23 22 19 20 18 18 17 16 15 14 13 12 10 10 9 6 4 5 6 6 9 11 10 12 8 6 6 4 4 4

GFSNE_con_lsi_057.txt.gz
Lid_Strength_Index
6 6 6 6 7 6 6 7 8 11 11 10 10 9 9 9 8 8 7 6 4 5 5 4 3 3 3 2 3 2 2 1 1 1 1 0 -0 -0
7 7 7 7 6 6 7 6 7 8 11 10 9 10 9 8 8 8 8 5 5 5 5 5 4 4 3 2 2 1 1 0 0 0 0 -0 -0 -0
7 7 7 6 7 6 6 7 8 9 11 10 10 10 11 10 10 10 9 9 8 6 6 6 5 5 4 3 2 1 -0 -1 -0 -0 -0 -0 -0 -0
7 7 7 6 7 7 7 8 8 9 11 12 11 11 12 11 10 11 9 9 9 7 7 6 5 5 5 3 2 1 -0 -1 -1 -0 0 0 -0 -0
7 7 7 7 7 7 8 8 8 9 11 12 11 11 11 11 11 11 11 10 9 7 7 6 5 4 4 3 1 0 -0 -1 -0 -0 -1 -0 -0 -0
7 7 7 7 7 8 8 9 11 12 13 13 13 13 13 12 13 13 12 12 11 9 7 7 6 5 3 2 1 0 -0 -1 -1 -1 -0 -0 -0 -1
8 7 6 6 7 8 9 11 13 14 15 15 15 15 15 15 15 14 13 12 11 11 10 9 9 8 5 2 0 0 0 0 0 -1 -1 -1 -0 0
8 7 7 8 10 11 11 11 13 15 16 16 16 16 16 15 15 14 13 13 14 11 12 11 10 9 7 6 3 2 1 1 0 -0 -1 -0 0 0
8 8 9 11 12 13 13 14 14 13 13 16 17 16 16 15 14 14 15 15 14 12 11 11 7 8 5 4 3 2 1 1 0 -0 0 1 0 1
10 10 12 13 14 15 16 17 16 16 15 15 16 16 15 14 14 13 13 13 12 11 9 10 7 7 6 6 3 3 2 0 0 0 0 0 1 1
13 14 15 16 14 14 16 17 16 15 13 13 12 12 11 11 11 12 12 13 14 13 9 8 7 8 7 7 6 3 2 1 0 1 1 1 1 1
15 15 14 16 15 15 16 16 17 17 16 16 14 13 12 12 10 11 12 13 12 12 9 9 8 8 8 8 7 6 4 1 1 2 2 2 2 4
16 17 17 16 15 15 15 16 17 17 17 17 16 16 15 14 13 13 12 11 11 10 7 7 8 7 6 8 8 7 5 5 6 5 3 3 2 3
17 17 17 16 15 15 16 16 16 17 18 19 18 17 17 16 15 14 12 11 8 7 5 5 6 6 7 9 8 7 7 6 8 7 7 5 4 3
17 17 17 16 16 16 17 17 17 18 19 19 19 18 17 16 15 14 12 10 8 5 4 4 4 5 5 8 8 8 7 7 8 8 9 9 9 10
18 17 17 17 17 17 17 17 18 18 18 19 19 18 17 17 16 14 13 12 11 6 4 4 3 4 5 6 6 8 7 8 8 7 8 10 10 12
18 18 19 19 19 19 19 19 18 18 19 19 19 19 19 18 16 14 13 12 12 9 7 5 4 3 3 4 6 6 6 8 7 7 8 11 12 10
19 20 22 22 21 20 20 20 19 19 19 19 19 19 19 18 16 15 14 13 12 11 6 4 4 4 4 4 2 5 7 8 8 7 8 11 11 11
20 21 22 22 21 20 20 20 20 20 19 20 19 20 18 17 18 17 15 14 13 11 10 4 5 5 8 10 5 2 7 7 8 10 8 9 12 10
19 20 21 20 20 20 20 21 20 21 21 21 20 21 20 19 19 18 16 15 13 12 11 5 4 4 6 8 8 8 3 8 9 12 11 9 8 6
20 20 20 21 21 21 21 22 23 24 24 26 24 23 24 20 20 18 17 16 14 12 11 9 6 3 3 6 10 10 11 4 6 8 10 10 11 10
20 20 20 21 21 21 23 25 25 26 25 24 26 27 26 22 20 18 17 17 14 12 11 8 7 3 5 6 8 12 10 11 6 3 4 5 10 13
21 21 21 22 23 23 22 24 25 26 25 23 22 20 25 20 18 17 17 16 14 12 11 10 8 4 5 5 7 9 9 11 9 7 8 4 4 4

GFSNE_con_lsi_060.txt.gz
Lid_Strength_Index
5 6 5 6 6 6 7 7 8 9 9 8 8 8 7 8 8 8 8 7 6 5 5 5 4 3 3 2 2 2 2 2 2 2 2 1 1 -0
6 6 7 7 7 6 7 7 7 7 9 8 8 8 8 9 8 8 8 7 6 6 6 6 5 4 4 3 3 2 2 2 2 0 -0 -0 -1 -1
7 7 7 8 7 7 6 6 7 8 9 8 9 10 10 10 9 9 9 9 8 7 6 6 6 6 5 4 4 3 2 2 2 0 -1 -1 -1 -1
7 7 8 7 7 7 7 8 8 8 9 11 10 10 11 10 10 10 9 9 9 8 7 7 6 6 6 5 5 4 4 3 1 -0 -0 -1 -1 -1
7 7 8 7 8 8 8 9 8 8 9 10 11 11 11 11 11 11 11 10 9 8 7 7 7 6 6 5 5 4 4 3 2 1 0 -1 -1 -1
7 7 7 7 7 8 8 9 9 10 11 12 13 13 13 12 13 13 13 12 12 10 9 8 7 7 6 6 5 4 4 3 1 0 0 1 1 0
8 8 7 8 7 8 8 10 11 12 13 14 15 15 15 15 15 14 14 14 13 12 11 10 9 9 8 7 6 6 4 2 1 0 1 1 1 -0
9 8 8 9 9 11 10 11 11 14 14 16 16 16 16 16 15 15 15 15 16 12 13 13 11 11 10 9 8 7 5 2 1 1 2 2 0 -0
9 9 10 11 11 11 12 13 13 14 14 16 17 17 16 15 16 16 15 15 15 13 13 14 11 12 10 9 7 5 4 2 2 2 2 0 0 0
10 10 11 12 12 13 14 15 15 15 15 15 16 16 15 15 14 14 14 14 13 12 11 14 11 12 10 8 6 4 3 3 2 2 1 0 1 1
13 12 13 13 13 13 15 15 16 15 14 15 14 14 13 13 13 14 15 15 16 14 11 12 11 11 10 8 6 5 4 3 2 2 1 1 1 1
14 14 13 14 14 14 15 16 17 17 17 17 16 16 15 15 14 14 14 15 15 15 11 12 11 10 10 7 8 6 4 3 2 1 1 1 1 2
15 16 15 14 14 14 15 16 17 17 18 18 18 17 16 16 15 15 14 14 15 15 11 11 10 9 8 7 8 7 5 4 3 2 2 2 2 2
16 17 16 14 14 15 16 16 17 18 18 19 19 19 18 18 17 16 14 13 13 13 11 10 9 7 7 7 8 6 6 5 4 4 3 4 3 3
16 16 15 14 15 16 17 17 18 19 19 20 20 20 19 18 17 16 14 14 13 12 11 8 7 6 6 7 7 7 6 4 4 4 4 4 4 4
17 16 17 17 17 17 18 18 19 19 20 20 20 19 19 19 18 16 17 16 16 14 10 8 5 5 6 6 5 6 5 5 5 4 5 5 5 5
18 18 19 19 19 19 20 20 20 20 20 20 21 20 20 20 19 18 18 17 17 16 13 10 7 5 5 5 6 5 4 5 4 4 5 5 5 5
18 20 21 21 21 21 21 21 21 20 20 21 21 21 21 21 20 19 18 18 17 15 14 12 10 7 6 5 3 4 4 4 4 4 5 6 5 5
20 21 22 22 22 21 21 21 21 21 21 21 21 21 21 21 20 20 20 18 17 16 14 12 10 9 7 8 4 1 4 4 4 5 5 5 6 5
20 22 22 22 21 21 21 22 21 22 22 22 22 22 22 22 21 21 19 19 18 17 15 12 10 9 10 7 6 4 2 4 5 5 6 6 5 5
20 21 21 21 21 21 22 22 23 23 23 24 23 23 23 23 21 21 20 20 19 17 16 13 10 8 7 5 5 6 4 3 4 5 6 6 6 6
21 21 21 21 22 22 22 23 24 23 23 23 22 24 24 24 22 21 20 19 18 17 16 12 9 8 8 5 5 6 6 7 5 3 4 4 6 8
21 21 22 22 22 23 22 23 24 24 24 23 23 23 25 23 20 19 19 18 18 17 16 13 11 9 8 6 4 5 6 7 5 5 5 3 3 4

GFSNE_con_lsi_063.txt.gz
Lid_Strength_Index
0 0 1 1 1 3 4 3 5 7 7 5 3 4 4 5 5 5 4 6 7 7 6 5 5 4 4 3 3 2 2 1 1 1 1 1 1 1
1 2 2 2 3 4 4 4 4 4 5 4 5 5 5 5 6 5 5 7 7 7 7 7 6 5 5 4 4 4 3 2 1 1 1 1 1 0
3 4 3 4 5 5 5 4 4 6 6 6 6 6 6 7 6 5 5 5 6 7 8 7 7 7 7 6 5 5 4 4 3 2 2 1 1 -0
5 5 5 6 6 5 6 7 5 6 7 8 7 7 7 5 5 6 7 7 7 7 8 8 8 7 7 7 6 6 5 5 4 4 3 2 1 -0
5 5 5 6 6 7 8 8 7 7 5 7 7 6 8 6 7 7 8 8 9 9 9 9 8 8 8 7 7 6 6 5 5 4 4 3 2 -0
5 5 6 6 7 8 7 9 7 10 9 8 10 9 8 7 8 10 11 11 11 10 10 10 9 9 8 8 8 7 7 6 5 5 4 4 3 1
7 7 7 7 8 8 8 9 10 10 11 11 12 11 10 10 11 12 13 12 11 10 10 10 10 9 9 8 8 7 7 7 6 6 5 3 2 2
9 8 8 9 10 10 10 10 9 12 12 12 12 12 12 12 12 12 13 13 13 10 11 11 9 10 9 8 8 8 8 7 6 6 4 2 3 3
9 10 10 11 12 12 13 13 12 12 12 11 13 13 13 12 12 13 13 13 13 11 12 13 10 11 9 8 7 8 7 7 6 5 3 3 3 2
10 10 12 13 13 14 14 15 14 13 13 13 12 12 12 12 12 13 13 13 12 11 11 14 10 11 9 7 7 7 7 7 5 4 3 3 3 2
13 13 13 14 13 13 14 15 14 14 13 14 14 14 14 15 14 13 14 14 14 13 11 12 11 11 9 8 6 7 7 7 5 4 3 3 2 1
15 15 15 14 14 14 14 14 15 15 15 15 15 15 15 15 16 15 14 15 15 15 11 12 12 11 13 8 6 5 5 5 4 3 2 1 2 1
16 16 15 14 14 14 14 14 15 15 17 17 16 16 16 16 16 16 16 15 15 14 11 12 12 11 11 10 7 5 4 3 3 2 2 2 2 2
16 16 15 14 14 15 15 16 17 17 17 17 18 18 18 18 17 17 16 15 14 13 12 11 13 12 11 10 8 4 4 3 2 2 1 1 3 2
15 15 14 14 15 16 17 17 17 17 18 18 18 18 18 18 17 17 15 14 14 13 12 11 11 10 9 9 7 6 5 3 2 2 1 1 1 1
16 15 15 16 16 17 17 17 17 18 18 18 19 18 18 18 19 17 17 16 16 14 11 11 10 10 10 6 5 5 5 5 3 2 1 1 1 1
16 16 17 18 17 18 18 18 18 18 19 19 19 20 20 19 19 18 18 17 17 16 14 12 10 9 8 7 5 5 4 4 2 2 2 2 1 1
17 18 19 18 18 18 18 18 19 20 20 21 21 20 20 20 20 18 18 17 17 16 15 13 11 10 8 6 4 4 4 3 2 2 1 2 3 1
18 19 19 19 18 19 19 20 21 20 21 21 21 20 20 20 20 19 18 18 17 16 14 12 11 11 11 11 4 3 3 2 2 2 1 2 3 2
17 18 18 19 19 19 20 21 20 20 20 21 21 21 20 20 20 19 18 18 17 16 15 12 11 10 11 11 9 6 2 1 2 2 2 1 1 4
18 19 19 19 19 20 20 21 21 21 22 22 21 21 20 20 20 18 17 18 17 16 15 13 11 11 9 8 8 6 2 2 0 1 1 2 4 3
19 19 19 20 20 21 21 21 21 21 21 21 20 19 19 18 19 18 17 17 16 15 14 12 11 10 9 9 8 6 2 1 2 3 3 3 3 5
21 21 21 21 21 21 21 21 21 21 20 20 19 19 19 19 17 17 16 16 15 15 14 13 12 10 9 8 8 6 3 3 2 3 2 3 3 3

GFSNE_con_lsi_069.txt.gz
Lid_Strength_Index
0 0 0 0 0 0 1 1 3 6 5 2 2 0 0 0 3 4 3 6 6 6 5 5 4 4 4 4 4 4 4 4 4 4 4 3 3 3
0 0 0 0 0 0 1 1 1 3 5 2 2 2 3 3 4 3 3 5 6 6 6 6 5 5 5 5 5 5 5 5 5 5 5 5 4 4
0 1 1 0 1 1 1 1 2 3 5 4 5 3 4 4 6 4 3 3 3 6 6 6 7 7 7 6 6 7 7 7 7 7 7 7 6 6
1 1 1 1 1 1 2 3 3 3 4 5 5 5 5 5 7 5 5 4 3 5 6 6 7 7 8 8 8 8 8 8 8 8 8 8 8 7
1 1 1 1 2 3 3 3 4 4 4 5 6 8 6 7 7 5 6 5 5 5 8 8 8 8 8 8 8 9 9 8 9 9 9 9 9 8
1 1 1 1 3 3 4 4 4 6 6 7 8 9 9 9 9 9 9 7 6 6 7 9 8 8 8 9 9 9 9 9 9 9 9 9 9 8
1 1 1 2 5 4 3 4 6 7 8 9 11 12 11 11 11 10 11 9 7 7 8 7 7 8 8 9 9 8 9 8 9 9 9 9 8 8
2 1 2 6 6 9 9 8 7 8 9 9 10 10 12 11 12 12 12 12 11 7 8 9 8 9 9 8 9 9 10 9 9 9 9 8 8 8
2 1 3 4 7 6 11 12 14 13 12 10 11 13 13 12 12 12 12 11 11 9 10 11 9 10 9 9 9 9 9 9 9 9 8 8 8 8
1 2 4 8 9 11 13 15 15 16 15 14 14 15 15 14 13 12 12 11 11 11 11 14 11 11 9 9 9 9 9 9 9 8 8 8 8 7
12 11 12 13 13 13 15 16 16 16 15 15 15 15 15 16 15 13 14 15 14 13 11 12 12 12 10 10 10 10 9 9 8 8 7 7 7 6
15 15 15 14 15 14 14 15 17 17 17 17 17 17 16 17 17 16 15 15 15 15 12 13 13 12 14 11 10 10 10 9 8 8 7 6 6 6
16 16 16 15 15 15 15 15 17 16 17 16 16 16 15 15 15 15 14 15 15 15 12 13 14 14 14 14 13 11 10 9 8 6 6 6 5 5
17 16 16 16 16 16 16 17 17 16 16 17 16 16 16 16 15 14 14 15 14 14 13 13 15 15 15 15 15 12 10 8 7 6 5 4 4 4
16 16 16 16 17 17 17 16 16 16 16 16 17 16 15 15 15 15 14 14 14 14 14 14 14 15 14 15 15 13 12 10 7 6 4 3 3 3
16 16 17 17 18 18 17 16 17 17 17 17 17 16 16 15 16 15 16 16 16 16 14 14 13 14 14 14 13 13 10 10 7 5 4 2 2 1
17 16 17 17 17 17 17 17 17 17 17 17 17 17 17 17 17 16 16 17 18 17 16 15 13 13 13 13 13 11 10 9 6 5 4 3 2 1
15 16 16 16 16 16 16 17 17 18 17 18 18 17 17 17 18 17 17 18 18 18 17 16 15 14 13 12 9 10 8 7 6 6 4 3 3 0
16 16 16 16 17 17 17 17 18 18 18 17 18 18 18 19 19 19 18 18 18 18 17 15 15 14 16 16 10 7 9 9 8 7 5 2 2 1
16 17 18 17 18 18 18 18 18 18 18 19 19 19 19 19 19 19 19 19 19 18 17 16 15 14 14 15 14 11 8 9 8 7 5 2 0 2
18 18 18 18 18 18 18 19 19 19 19 19 19 19 19 20 20 19 19 19 19 18 17 16 14 12 11 11 13 11 7 6 5 6 5 4 3 2
18 19 19 19 19 19 19 19 19 19 19 19 19 19 19 19 20 19 19 19 18 17 16 14 13 13 12 12 13 11 9 6 5 4 4 3 3 4
20 19 19 19 19 19 20 20 20 20 20 20 20 20 20 20 19 18 18 17 17 16 16 16 14 13 13 12 12 11 9 8 6 5 3 2 2 2

GFSNE_con_lsi_072.txt.gz
Lid_Strength_Index
1 2 1 1 1 1 2 2 4 6 5 4 3 2 2 1 3 4 4 6 7 7 7 6 5 4 3 3 3 3 3 3 3 3 3 3 3 3
1 1 1 1 1 1 1 2 2 3 5 3 3 2 2 2 3 6 5 6 8 8 8 7 6 5 5 5 5 5 5 5 4 4 4 4 5 5
1 1 1 1 1 1 1 1 2 2 4 3 3 3 5 4 6 6 6 6 8 8 8 8 8 7 7 7 6 6 6 6 6 6 7 7 7 7
1 1 1 1 2 1 1 2 2 1 3 4 3 5 5 4 7 7 5 5 6 7 8 7 8 8 8 8 8 8 8 8 9 9 9 8 8 8
1 1 2 2 2 2 2 2 2 2 2 3 4 6 6 7 8 7 7 7 6 5 7 8 9 9 9 9 9 9 9 9 9 9 9 9 9 9
1 1 1 1 2 2 2 2 2 3 3 4 4 9 8 9 7 8 9 8 8 7 8 8 9 9 9 9 9 9 9 9 9 9 9 9 10 9
1 1 1 2 4 3 2 3 3 4 4 5 6 11 10 12 10 9 10 10 9 8 10 11 11 11 11 9 10 9 9 9 9 9 9 9 9 9
2 2 1 6 6 8 8 7 4 4 5 6 7 9 9 11 12 12 13 13 15 10 11 12 11 12 11 11 10 9 9 9 9 8 8 9 9 9
2 2 2 3 6 4 9 11 13 14 12 7 9 13 14 12 12 14 14 15 15 13 13 14 12 13 11 10 9 9 9 9 9 9 9 9 9 9
2 2 4 4 6 8 12 15 15 15 14 14 14 14 14 14 13 14 15 15 15 14 13 16 14 14 12 12 10 9 9 9 9 9 9 9 9 9
11 11 10 11 11 12 14 15 16 17 15 15 15 15 14 14 14 14 16 16 16 16 13 14 15 16 15 15 13 10 10 10 10 9 9 8 8 8
15 14 14 14 14 14 14 16 17 18 18 18 18 17 16 16 16 15 16 16 16 17 15 17 17 17 18 15 14 14 14 11 11 10 10 9 8 9
16 16 16 15 14 14 15 16 17 17 17 17 17 17 16 16 16 16 16 16 16 17 15 17 18 18 18 17 16 15 14 14 13 12 9 9 7 7
17 17 16 15 16 16 16 16 16 16 16 17 17 17 17 17 16 16 16 16 16 17 16 16 18 17 18 18 18 16 15 14 13 13 11 9 7 5
17 16 16 17 17 17 16 16 16 16 16 17 17 17 17 17 17 16 16 16 16 16 15 15 17 17 17 18 18 17 16 15 13 13 12 10 9 6
18 19 18 18 18 17 18 18 17 18 17 18 18 18 17 17 17 16 17 17 18 17 16 16 16 17 18 17 17 17 16 16 14 12 11 10 8 5
17 18 18 18 18 18 18 18 18 18 19 18 19 19 18 18 18 17 18 19 21 20 19 16 16 16 16 16 18 16 16 15 13 12 11 10 8 6
16 17 17 18 18 18 18 18 18 19 19 18 19 19 19 20 20 19 19 19 20 19 19 18 18 18 17 16 14 16 15 14 13 12 11 11 10 7
18 19 19 19 18 18 19 19 20 19 19 20 20 21 21 20 20 20 20 20 20 20 19 19 19 19 22 22 16 13 16 14 14 13 11 10 9 7
19 19 19 19 19 19 19 20 20 20 21 21 22 22 22 22 22 22 21 22 22 20 20 19 19 18 19 21 20 16 11 13 13 13 11 8 7 4
19 20 20 20 20 20 20 20 21 22 22 23 22 23 25 23 24 23 23 23 23 21 21 20 18 17 16 16 19 17 14 9 9 10 9 9 9 7
20 20 20 20 21 21 21 22 22 23 23 23 25 26 26 25 24 25 24 23 21 21 20 18 17 16 16 16 17 17 14 12 9 8 6 6 7 8
21 21 21 21 22 22 22 23 23 24 24 24 23 23 27 26 23 23 22 21 20 19 19 18 17 16 16 16 16 15 14 13 11 10 8 5 3 3

GFSNE_con_lsi_075.txt.gz
Lid_Strength_Index
2 2 2 2 2 2 2 2 3 6 5 5 4 3 2 3 3 3 3 4 6 6 6 6 5 4 4 4 4 3 3 3 3 3 3 3 3 4
2 2 2 2 2 2 1 2 2 3 5 4 4 3 3 2 2 2 2 4 7 7 7 7 6 6 5 5 5 5 4 4 5 4 4 5 5 5
2 2 2 2 2 2 1 1 2 2 4 3 2 2 3 3 2 3 3 4 5 8 8 8 8 7 7 7 7 6 6 6 6 6 6 6 7 7
2 2 2 1 2 1 1 2 2 2 3 4 2 3 4 4 2 5 5 5 6 8 8 8 8 8 9 8 8 8 8 8 8 8 8 9 8 8
1 2 2 2 2 1 2 2 2 2 2 3 3 2 3 6 6 6 6 5 6 6 9 9 9 9 8 8 9 9 9 10 9 9 9 9 9 9
2 2 2 2 2 2 2 2 2 2 2 3 3 3 5 7 6 5 8 7 7 6 7 8 8 9 9 9 10 10 10 9 9 9 9 10 10 9
1 1 1 2 4 3 2 2 2 2 2 3 4 4 7 11 9 7 7 7 10 9 9 10 10 11 10 10 11 10 10 9 9 9 9 9 10 10
2 2 1 5 5 7 7 7 3 2 3 3 3 4 4 6 8 11 13 13 13 11 12 13 11 12 11 11 11 10 10 10 9 9 9 9 9 10
2 2 2 2 6 3 9 12 13 13 12 6 5 5 9 12 12 14 15 13 15 14 13 14 12 13 11 10 11 10 10 10 9 9 9 9 9 10
2 2 3 3 4 6 11 14 15 15 14 13 13 14 13 13 13 13 14 14 14 14 14 16 14 15 12 12 11 10 10 10 10 10 10 10 10 10
10 11 8 7 9 10 13 15 16 16 14 14 14 14 14 13 13 13 14 15 16 15 14 15 15 15 14 14 13 11 12 12 11 11 11 11 10 10
15 14 14 13 13 13 14 15 17 18 17 17 17 17 16 15 14 15 15 16 16 17 16 17 16 17 17 16 16 15 15 14 13 12 11 11 10 12
16 16 15 14 14 14 15 16 17 17 17 17 17 17 16 16 16 16 16 16 17 17 16 16 17 17 17 17 17 16 16 15 15 15 13 11 11 11
17 16 16 15 16 16 16 16 17 17 17 18 18 18 18 18 17 17 16 16 16 16 16 16 18 18 18 19 19 17 17 16 16 15 15 13 12 11
17 16 16 16 17 17 17 17 17 17 17 18 18 19 18 17 17 17 16 16 16 16 16 15 16 16 17 19 19 19 18 17 16 16 16 15 15 14
18 18 18 18 18 19 19 18 18 18 18 19 19 18 18 18 19 18 18 18 18 18 16 16 16 17 18 18 18 19 17 19 17 16 16 15 14 14
18 18 19 19 19 20 19 19 19 19 19 19 19 20 19 20 20 19 19 19 20 20 19 17 17 17 17 17 19 18 18 18 17 16 16 16 15 14
18 20 20 20 20 20 20 21 20 20 20 20 20 20 21 21 20 20 19 20 21 20 20 20 20 20 20 19 17 19 18 19 18 17 16 17 16 13
20 20 21 21 21 21 21 21 22 21 20 20 21 21 21 21 22 22 22 22 23 22 22 21 21 22 23 25 20 17 19 18 18 18 16 15 15 13
20 21 22 21 21 21 21 21 21 21 21 21 22 22 23 22 23 23 23 24 23 22 22 21 21 21 23 24 23 20 15 17 17 17 15 13 11 8
21 21 21 21 21 21 22 22 23 23 23 24 24 24 25 24 24 24 24 25 24 22 23 22 20 19 19 19 23 21 18 14 14 15 14 14 13 12
22 22 22 22 23 23 23 23 24 24 24 24 26 27 28 26 27 26 26 26 23 22 22 20 19 19 19 20 21 20 18 16 13 12 11 10 11 12
23 23 24 24 24 24 24 25 26 26 26 26 27 28 34 29 26 26 26 24 23 22 21 20 19 18 19 18 19 19 18 17 14 13 11 7 6 5

GFSNE_con_lsi_078.txt.gz
Lid_Strength_Index
2 2 2 2 2 2 2 3 4 6 5 4 4 3 2 2 3 3 4 4 6 6 6 5 4 4 3 2 1 1 1 1 2 2 2 2 2 2
2 3 2 2 2 2 2 2 2 3 5 3 4 3 3 2 3 3 3 4 6 7 7 7 6 5 4 3 3 3 3 3 3 3 3 3 3 4
2 3 3 2 2 2 2 2 2 3 4 3 3 2 4 3 3 3 3 3 3 6 7 7 7 7 6 6 6 5 5 5 5 4 4 4 4 5
2 2 3 2 3 3 2 3 3 3 3 4 3 3 4 2 2 3 3 2 3 5 7 7 7 8 8 8 8 7 7 7 7 6 7 7 6 7
2 2 2 2 2 2 2 2 2 2 2 3 3 2 2 4 4 4 3 3 4 5 8 9 8 8 8 8 8 8 8 9 9 9 10 9 9 9
3 2 2 2 2 3 3 2 2 2 2 3 3 3 2 2 4 3 4 5 4 4 6 8 8 9 9 9 9 9 10 11 11 11 11 10 11 10
2 2 2 2 4 3 2 2 2 3 3 3 3 3 3 8 6 4 5 3 9 8 9 10 9 9 9 9 10 11 11 11 11 11 10 10 10 10
3 2 2 5 5 7 7 6 3 3 3 3 3 4 3 3 4 4 4 11 11 11 12 12 11 12 11 11 11 12 11 11 11 10 10 10 10 10
3 3 3 2 5 2 6 8 9 11 10 3 3 3 3 2 4 12 13 13 14 14 13 14 12 13 10 9 11 11 11 11 11 11 10 10 10 10
2 2 3 3 3 4 4 8 11 14 13 12 11 11 13 12 11 11 13 15 15 15 13 16 14 15 13 13 12 12 12 11 11 12 11 11 11 11
3 2 3 3 5 8 6 12 16 16 14 14 14 15 15 14 13 13 15 15 17 17 15 16 15 15 15 14 13 12 13 13 13 13 12 12 11 11
12 14 14 13 12 12 7 13 16 17 17 17 17 17 16 16 16 16 15 17 17 18 18 17 17 17 18 16 16 16 15 15 15 14 13 13 12 13
16 17 16 15 15 15 15 16 17 17 17 17 17 17 17 17 17 17 17 17 18 19 17 18 19 18 18 18 17 16 16 16 16 15 14 14 14 13
17 17 17 16 16 16 17 16 16 17 17 18 19 19 19 19 18 18 17 17 17 17 17 17 18 18 19 20 20 17 17 16 16 16 16 15 14 14
17 17 16 17 17 18 17 17 17 18 19 20 20 20 19 18 17 17 17 17 17 17 17 17 18 18 18 19 19 18 18 17 16 17 16 17 17 16
18 18 18 18 18 19 19 19 20 20 19 20 21 19 19 20 19 19 20 19 19 19 17 17 17 17 19 18 18 19 18 19 18 17 17 18 17 17
17 18 18 19 20 20 21 20 20 20 21 21 21 21 21 21 21 20 20 20 21 21 20 19 19 19 19 19 21 20 20 20 19 19 19 19 18 18
18 19 20 20 21 21 21 22 22 21 21 22 22 21 21 22 21 21 21 21 22 22 22 21 21 21 20 20 18 21 21 21 20 19 18 19 19 17
20 20 21 21 21 21 21 22 22 21 21 22 22 22 22 22 22 23 23 23 23 23 22 21 21 23 26 28 21 18 21 20 19 20 19 19 19 18
20 21 21 21 21 22 21 22 22 22 22 23 23 24 24 24 24 24 25 27 25 23 23 22 23 23 25 28 24 21 17 20 20 21 20 18 16 13
22 22 22 22 23 23 23 23 24 24 25 25 25 26 29 26 27 25 26 27 26 24 24 24 22 20 20 21 27 25 21 17 17 19 18 18 18 16
23 23 23 24 24 24 25 25 25 26 26 26 28 30 31 28 29 27 28 27 25 24 23 22 21 20 21 22 23 23 21 19 16 14 13 13 15 16
25 25 26 27 27 27 26 28 28 29 29 30 30 29 34 29 27 27 27 25 24 24 23 23 21 20 21 20 21 20 20 19 17 17 15 11 10 9

GFSNE_con_lsi_081.txt.gz
Lid_Strength_Index
3 3 3 3 3 3 3 3 4 6 6 5 4 3 2 2 3 3 4 4 6 6 6 5 4 3 3 2 2 1 1 0 -0 -0 -0 -0 -0 0
2 3 3 3 3 3 2 3 3 4 5 3 4 3 3 2 2 3 3 4 6 7 7 6 6 5 4 4 4 3 2 2 1 1 1 1 1 1
3 3 3 2 3 3 2 3 3 3 4 3 3 3 4 3 3 3 3 3 3 6 6 7 7 7 6 6 6 5 4 4 3 2 2 2 3 3
2 2 2 2 2 2 3 3 3 3 4 4 3 3 4 3 3 3 3 2 2 3 6 7 7 7 8 7 7 7 6 5 6 5 5 5 4 5
1 2 2 2 3 2 3 3 3 3 3 3 3 2 2 4 4 4 3 2 2 3 6 7 7 7 7 8 8 7 7 8 8 8 9 9 9 10
2 2 2 2 2 2 2 2 2 2 2 3 3 3 3 2 3 2 3 3 3 2 4 5 6 7 8 8 8 8 8 9 10 11 11 11 12 11
3 3 2 2 4 4 2 3 3 3 3 3 3 3 3 3 5 3 3 3 2 3 5 8 8 8 8 8 8 8 10 10 10 11 11 11 12 12
3 3 3 6 6 8 8 7 4 3 3 3 3 4 3 3 2 3 3 3 5 9 10 12 11 11 10 11 11 11 11 11 11 11 11 10 10 11
3 3 3 3 6 4 7 9 9 9 7 3 3 3 3 2 2 3 4 4 5 12 13 15 13 13 11 11 11 12 11 11 12 11 11 11 11 11
3 3 3 3 3 3 4 4 5 5 8 8 7 6 8 10 8 9 11 15 15 15 14 15 16 15 14 14 13 13 13 13 12 12 12 12 12 12
3 3 7 5 7 9 6 6 11 16 14 14 14 14 14 14 13 13 15 14 16 17 17 17 17 16 16 16 14 14 13 14 14 14 14 14 14 14
13 15 15 15 15 14 12 8 14 17 17 17 17 17 16 16 16 16 15 16 18 19 19 18 18 18 19 17 16 16 16 16 16 16 16 15 15 15
16 17 16 15 15 15 15 16 16 17 18 18 18 18 18 18 17 17 17 18 20 20 18 18 19 18 18 18 17 17 17 17 17 17 16 16 15 15
17 17 16 16 17 16 16 16 16 18 18 19 19 20 19 19 19 18 18 18 18 19 19 18 19 19 19 20 20 18 17 17 17 17 16 15 15 15
17 17 17 17 17 18 17 18 18 18 19 20 21 20 20 19 19 19 19 18 19 19 18 18 19 19 19 20 20 19 19 17 16 17 17 17 17 17
18 18 18 18 18 18 19 19 19 19 20 21 21 20 19 20 21 20 21 20 21 20 19 19 20 20 21 20 20 20 19 20 19 19 19 19 18 18
16 17 18 19 19 19 19 20 20 20 20 21 21 21 21 21 22 21 21 21 23 23 22 21 19 19 19 20 21 21 22 21 21 20 20 20 19 19
18 19 19 19 20 21 21 21 20 21 21 21 21 21 22 22 22 22 22 23 23 23 22 22 22 22 22 22 19 22 22 22 21 20 19 21 21 19
20 20 20 20 20 20 21 21 22 22 21 23 23 23 22 23 23 24 23 23 23 23 23 22 23 24 27 29 22 19 22 21 21 22 21 21 21 20
21 21 22 21 21 21 21 22 23 23 23 23 24 24 24 23 24 24 24 25 24 24 24 23 23 23 26 29 27 22 18 21 21 22 21 20 19 16
22 22 22 22 22 22 23 24 24 25 26 26 27 26 28 26 27 25 25 25 25 24 25 24 23 21 21 22 29 26 22 18 18 20 20 21 20 18
23 23 24 24 24 24 25 26 26 27 28 28 32 33 32 29 30 29 29 28 25 25 24 23 21 21 22 23 24 24 22 20 17 15 15 16 18 20
25 25 25 25 25 25 26 27 28 29 29 30 30 29 35 30 28 29 29 27 25 25 24 23 22 21 22 21 21 21 21 20 19 18 17 14 13 11

GFSNE_con_lsi_087.txt.gz
Lid_Strength_Index
2 2 2 2 1 2 1 1 2 5 4 2 3 2 2 2 2 1 1 3 6 6 5 5 4 3 3 3 2 2 1 0 0 -0 -1 -1 -1 -1
2 3 3 2 2 2 1 1 1 2 5 2 3 2 2 1 2 2 1 4 5 7 7 6 6 5 4 4 4 3 3 2 2 1 1 0 -0 -1
2 2 2 2 2 2 2 2 2 2 4 3 2 2 3 2 2 1 2 1 1 6 7 7 7 7 6 6 6 5 4 4 3 2 2 1 1 0
1 2 2 2 2 2 2 2 2 2 3 3 1 1 1 0 -0 0 1 1 0 3 6 7 7 7 7 7 7 7 6 5 5 4 4 3 2 1
2 2 2 1 2 1 1 1 1 1 1 2 2 1 1 -0 0 -0 -0 -1 -0 3 6 7 7 6 7 7 7 7 7 6 7 7 6 6 5 4
1 1 1 1 1 1 1 1 2 2 2 2 2 2 1 0 1 1 2 0 0 -0 2 4 4 5 6 6 7 7 7 7 7 7 7 8 8 7
1 1 0 1 4 2 1 1 1 2 2 2 3 3 3 2 3 1 2 1 1 0 0 0 -0 -0 1 6 5 7 7 7 7 7 7 9 10 9
1 1 0 4 5 8 8 7 3 2 3 3 3 3 3 3 2 2 3 3 4 0 1 1 8 10 10 9 10 10 10 10 10 10 11 11 12 12
2 2 2 2 5 2 6 9 9 10 9 5 4 3 4 5 5 4 3 3 4 12 11 13 13 14 13 13 12 12 12 12 12 13 13 13 14 14
6 10 9 8 11 11 9 6 8 15 14 13 14 14 15 14 13 11 12 14 14 16 15 15 16 17 15 15 14 14 14 14 13 13 14 14 14 14
14 14 14 14 14 13 11 11 15 16 15 15 15 16 16 16 15 13 14 14 15 17 18 16 17 17 17 17 16 15 15 15 15 15 15 15 15 15
16 15 15 15 15 14 13 12 15 16 16 17 17 17 17 18 17 17 16 16 16 18 18 17 16 16 17 16 16 15 15 16 16 16 16 15 15 15
17 17 17 16 16 16 16 16 16 17 18 18 18 18 18 18 18 17 17 17 18 19 17 15 16 15 16 16 16 16 16 16 15 15 16 16 16 16
16 16 16 16 16 16 16 16 15 16 16 17 17 17 17 16 15 15 16 16 16 17 16 14 16 16 15 15 16 15 15 15 15 16 16 17 17 17
16 16 16 16 16 15 15 15 15 14 14 15 16 16 16 15 14 14 14 15 16 16 16 16 16 16 16 17 17 17 18 16 16 17 17 18 18 17
16 16 16 16 16 16 15 15 15 15 15 15 16 16 15 15 16 15 16 15 17 17 17 17 16 16 17 17 17 17 18 19 18 18 17 17 16 16
15 14 15 15 15 16 16 16 16 16 16 16 16 16 17 17 17 16 16 16 17 18 18 17 17 17 17 17 17 18 18 18 18 18 18 18 17 16
15 16 17 17 17 17 17 18 18 18 18 17 17 17 17 17 17 16 16 17 18 18 18 18 18 18 18 18 18 18 18 19 18 18 18 19 18 15
17 18 18 18 18 18 18 18 19 18 18 18 18 18 18 18 18 18 18 18 18 18 19 19 19 19 20 21 18 18 19 19 18 18 17 17 17 16
19 19 19 19 19 19 19 19 19 19 19 19 19 19 19 19 19 19 19 20 19 19 19 19 20 20 21 21 21 18 18 19 18 18 17 16 15 14
20 20 20 20 20 20 20 21 21 21 21 21 21 21 20 19 20 20 20 22 21 20 20 20 19 20 18 17 19 18 16 16 17 17 17 16 16 15
21 21 21 21 21 21 21 21 21 22 22 22 22 22 21 20 21 21 20 20 20 19 19 19 18 18 18 19 19 18 16 15 14 14 15 15 16 17
22 22 22 22 22 22 22 22 23 23 23 23 22 22 22 21 20 20 20 20 20 20 20 19 18 18 18 18 18 17 16 16 14 13 13 12 12 12

GFSNE_con_lsi_090.txt.gz
Lid_Strength_Index
1 1 1 1 1 1 1 2 3 5 4 2 1 -0 0 0 1 0 -0 3 5 6 6 5 4 3 3 3 2 2 1 1 0 -0 -0 -1 -1 -1
2 1 2 1 1 1 1 1 1 2 4 2 1 -0 -1 2 1 2 1 3 5 6 7 6 6 5 4 4 4 4 3 3 2 1 1 1 0 -1
2 2 2 1 2 1 0 0 2 1 4 2 0 -0 -0 -0 -0 0 1 0 -0 6 7 7 7 7 6 6 6 5 5 4 4 3 2 2 1 0
2 2 2 1 1 1 2 2 2 2 3 4 2 2 2 1 -0 -0 -1 -1 -1 2 5 6 7 7 8 8 7 7 7 6 6 5 5 4 3 2
2 1 1 1 1 1 2 2 1 1 1 2 2 1 0 -0 0 -0 -0 -1 -1 2 5 7 7 7 7 7 7 7 7 7 7 7 7 6 5 4
1 1 1 1 1 1 1 1 1 2 2 2 2 2 1 0 0 1 1 0 1 -0 1 3 3 5 7 8 8 7 7 7 7 7 7 8 8 7
0 0 0 1 4 2 1 1 1 2 2 2 3 2 2 2 2 1 2 1 1 -0 0 0 6 8 9 9 9 9 8 8 8 8 9 10 10 10
1 1 0 4 4 8 8 7 4 2 2 3 3 3 3 3 2 2 3 3 4 8 7 10 12 13 13 12 12 12 12 11 12 11 11 12 12 12
1 1 2 2 5 2 7 9 9 13 12 7 6 5 8 12 11 10 10 11 12 13 12 14 13 15 14 13 14 13 13 13 13 13 14 13 14 14
12 11 10 10 12 12 9 11 14 14 14 14 15 16 16 15 14 12 12 13 15 16 15 14 15 17 15 15 15 14 14 14 14 14 14 14 15 15
15 15 14 14 15 14 11 14 16 16 15 15 16 16 16 16 15 12 15 14 13 17 17 15 16 17 16 16 15 15 15 15 15 15 15 15 14 15
17 16 16 16 15 14 11 14 16 16 17 17 17 17 16 16 16 16 14 15 15 16 16 14 13 13 14 12 13 13 12 14 14 14 14 14 14 12
18 18 17 16 16 16 16 16 17 17 17 16 16 15 15 15 14 14 13 12 12 14 14 11 12 11 11 12 12 12 12 13 12 13 14 15 15 15
16 16 15 15 15 15 15 15 15 14 14 14 14 14 14 14 13 13 14 14 13 14 13 12 12 12 12 12 13 11 11 11 12 13 13 15 15 15
15 16 16 16 16 16 16 15 13 12 12 14 14 14 14 13 12 12 12 13 14 14 15 13 13 13 12 13 13 12 14 12 12 14 14 14 14 14
16 15 16 16 16 15 14 13 13 13 14 14 14 13 13 13 14 13 14 13 14 14 14 14 14 13 13 13 13 13 13 15 13 14 14 14 13 13
14 14 15 15 15 15 15 15 14 14 14 14 14 14 14 14 15 14 14 14 14 15 15 14 14 13 13 14 14 14 14 14 14 14 14 15 13 13
15 16 16 16 15 15 15 15 15 16 16 15 15 15 16 16 15 15 14 14 15 15 15 15 15 14 14 15 16 16 15 15 15 14 14 15 15 12
15 16 16 16 16 16 16 16 17 17 17 16 16 16 15 15 16 16 16 15 16 16 16 15 16 16 17 17 15 17 16 16 15 15 14 14 15 13
16 16 16 16 17 17 17 17 17 17 17 17 17 17 16 16 16 17 17 18 17 17 16 16 16 17 18 18 17 15 14 15 15 15 15 14 12 12
17 18 17 17 17 17 18 18 18 18 18 18 18 18 17 17 18 18 17 19 19 17 17 17 16 17 15 14 15 15 13 13 14 15 14 14 13 12
18 18 18 18 18 18 18 18 18 18 18 18 18 18 18 17 17 18 17 17 17 16 16 15 15 15 15 15 16 15 13 11 11 11 11 12 13 14
19 18 18 18 18 18 18 19 19 19 20 19 19 19 19 18 18 17 17 16 16 16 15 15 14 13 14 14 14 13 12 12 11 11 9 9 10 10

GFSNE_con_lsi_093.txt.gz
Lid_Strength_Index
1 0 1 1 0 0 1 2 3 5 5 2 2 -0 -1 -1 -0 -1 -1 3 6 6 6 5 4 4 3 3 2 2 1 1 0 -0 -0 -1 -1 -1
1 1 1 1 1 0 1 1 1 3 5 2 1 0 -0 1 1 -1 -1 3 6 7 6 6 6 5 4 4 4 4 3 2 2 2 1 1 0 -0
3 3 2 2 1 1 1 1 1 1 3 2 1 -0 1 -0 -0 -0 -0 -1 -1 6 6 6 6 7 7 6 6 5 5 4 4 3 3 2 1 1
3 3 3 2 2 1 1 1 1 1 2 3 2 2 2 1 0 -0 -0 -1 -1 2 5 6 6 7 7 7 7 7 7 6 6 6 5 4 3 3
4 2 2 1 1 1 1 1 1 2 2 2 3 1 1 0 1 0 0 -0 -1 2 5 7 6 6 7 8 8 8 7 7 7 7 7 7 6 5
3 2 1 1 1 1 1 1 2 2 2 2 2 2 2 1 1 1 2 0 1 -1 2 8 8 9 10 9 10 9 9 9 8 8 9 9 9 8
3 1 1 1 4 3 1 1 1 2 2 3 3 3 2 2 2 1 2 1 1 6 4 9 9 11 12 11 11 11 11 11 10 11 11 12 12 12
2 2 1 5 5 7 7 7 6 2 3 3 3 4 3 2 3 5 5 5 6 12 9 12 12 14 14 13 13 13 13 13 13 13 13 13 13 14
5 6 3 7 9 6 8 12 14 14 13 9 7 9 11 14 13 11 9 10 10 14 12 13 13 15 14 14 14 14 14 14 14 14 14 14 14 14
12 12 11 12 13 12 9 13 15 15 15 15 15 16 16 16 15 13 13 14 14 15 15 14 15 16 15 15 15 14 14 14 14 14 13 13 13 12
15 15 15 15 14 13 11 15 16 17 16 15 15 16 16 16 15 11 14 14 14 16 16 15 14 14 14 14 13 13 13 13 13 12 13 13 13 12
16 16 16 15 15 13 14 15 17 17 17 16 16 16 15 15 15 14 13 13 13 13 13 13 12 12 13 11 11 11 11 13 13 13 13 14 14 13
18 18 17 17 16 15 16 16 17 16 17 16 15 14 14 14 14 14 14 14 14 15 14 13 12 12 12 12 11 11 11 11 11 11 12 13 14 14
17 17 16 16 16 15 15 15 15 14 14 14 14 15 15 15 14 14 14 13 13 14 13 12 13 13 13 13 12 11 11 11 11 12 12 12 12 12
16 16 16 16 15 16 15 15 14 14 14 15 15 16 15 14 12 12 12 12 13 14 14 14 14 13 13 13 14 13 14 12 12 12 12 12 12 11
15 15 15 16 15 15 15 15 15 15 15 16 15 14 13 14 14 13 13 13 13 14 13 13 14 14 14 14 14 13 13 14 13 13 13 12 12 11
14 15 15 15 16 16 16 16 16 16 16 16 15 15 15 15 15 14 14 14 14 15 15 14 13 13 14 15 15 14 14 14 14 14 14 14 12 11
16 17 17 16 17 17 17 17 17 18 17 16 16 16 16 16 16 15 15 15 15 15 15 15 14 14 13 14 16 16 15 15 14 14 14 14 14 11
17 17 18 17 17 17 17 18 18 17 16 16 16 16 16 16 16 16 16 16 15 15 15 15 16 16 18 17 14 14 15 15 14 14 14 13 13 12
17 17 18 17 17 17 17 17 17 17 17 17 17 17 17 16 16 16 16 17 17 16 16 15 15 17 18 18 17 14 12 14 13 14 14 12 11 10
17 17 17 17 17 17 17 17 18 18 18 18 17 18 17 16 17 17 17 17 17 16 17 16 15 16 14 14 15 14 12 11 12 12 12 12 12 11
17 18 18 18 18 18 18 18 18 18 18 18 18 18 18 17 18 17 17 18 17 17 16 15 14 14 14 14 15 13 12 10 9 9 9 9 11 13
18 18 18 18 18 18 18 18 19 19 19 19 19 19 19 18 18 17 17 16 16 16 16 16 14 13 13 13 13 12 12 11 10 10 9 8 8 8

GFSNE_con_lsi_096.txt.gz
Lid_Strength_Index
2 1 2 2 1 2 2 3 5 7 7 3 4 2 1 1 2 2 1 4 6 6 6 5 4 3 3 3 2 2 1 1 0 0 -0 -0 -1 -1
1 2 2 2 2 2 2 2 3 5 7 4 4 2 1 1 1 1 1 3 6 6 6 6 6 5 4 3 3 3 2 2 2 1 1 1 0 -0
2 3 2 2 3 3 3 2 3 4 5 4 3 2 2 2 1 2 1 1 1 5 6 6 6 6 6 6 5 5 4 4 3 3 2 2 1 1
3 3 3 3 3 3 3 3 3 3 4 4 3 3 2 2 1 1 0 -0 0 2 5 5 6 7 7 8 8 7 7 6 6 6 5 4 4 3
4 3 3 3 4 3 3 3 3 3 2 4 4 2 2 2 2 1 1 0 -0 2 5 9 9 9 10 10 9 9 9 8 8 8 8 8 8 7
4 4 4 4 4 3 3 2 3 2 3 3 3 3 3 2 1 2 2 1 1 -0 8 9 10 10 11 11 10 10 10 10 10 11 11 12 11 10
4 4 3 4 6 4 2 2 3 3 3 3 3 3 3 3 3 2 2 2 8 9 6 10 11 12 12 12 12 12 12 11 11 12 12 12 13 12
5 4 4 6 6 8 9 12 9 4 3 3 3 3 3 8 9 8 8 8 8 12 10 11 12 14 14 13 13 13 12 13 13 13 13 13 13 14
6 5 6 9 9 7 13 13 13 13 13 8 7 12 11 14 13 11 10 10 11 15 13 14 14 16 14 14 13 13 13 13 13 13 12 12 12 12
13 12 11 12 13 10 13 15 15 15 15 15 15 16 16 15 14 13 13 14 15 16 16 15 15 17 15 14 13 13 13 13 13 12 13 13 13 13
15 14 14 14 14 11 14 16 17 17 15 15 15 15 15 15 14 13 15 15 15 16 16 15 15 15 15 15 14 13 13 13 13 13 14 14 14 14
16 16 15 15 14 14 15 16 17 17 17 17 16 16 16 16 15 16 15 14 14 15 17 15 14 14 15 14 14 13 14 13 13 13 14 14 14 16
17 17 16 16 15 15 16 16 17 17 16 16 16 16 16 16 17 17 17 17 16 17 16 15 15 15 14 15 14 15 16 16 16 14 12 12 12 13
18 18 17 16 16 16 16 15 15 15 15 16 17 17 17 16 19 18 19 19 19 19 18 17 18 17 16 16 15 14 16 16 16 16 16 13 13 12
17 16 16 16 16 17 16 16 16 16 16 16 17 17 17 19 18 17 17 16 17 17 17 17 18 18 18 18 18 18 17 16 16 16 16 16 16 16
17 17 17 17 16 17 17 16 16 16 16 17 17 18 19 19 19 19 19 18 18 18 16 16 17 17 18 18 18 17 17 18 17 16 16 16 16 15
17 17 17 17 18 18 19 19 19 19 19 20 20 20 19 19 19 18 18 18 19 19 19 17 16 16 16 17 18 17 18 17 17 16 16 16 15 15
18 19 19 19 19 20 20 21 21 21 20 20 21 19 19 19 18 18 18 18 19 19 19 19 18 18 17 16 15 17 17 18 17 16 15 17 16 15
20 21 21 21 20 20 20 21 22 21 20 21 21 21 20 19 19 19 19 19 20 19 19 18 18 20 23 25 17 14 17 16 17 17 16 16 17 15
19 20 20 20 21 21 21 21 21 21 21 20 22 22 22 21 22 21 20 23 21 19 18 18 19 19 23 26 24 18 13 16 18 19 16 14 13 11
21 21 21 21 20 21 21 21 23 24 24 25 23 22 24 21 22 21 21 22 22 19 20 19 18 18 17 18 23 20 16 11 12 14 14 14 14 13
20 20 20 20 20 20 22 23 22 23 23 22 24 25 25 23 24 23 23 24 20 21 19 18 16 16 16 16 18 21 16 16 11 9 8 9 12 14
20 20 21 21 21 22 21 22 23 22 23 23 23 23 25 23 22 22 23 22 20 20 18 19 17 16 16 15 16 15 15 15 12 13 12 9 8 8

GFSNE_con_lsi_099.txt.gz
Lid_Strength_Index
2 2 2 2 2 2 3 3 4 6 5 4 4 2 2 3 3 3 3 5 7 7 6 6 4 3 3 3 2 2 1 1 0 -0 -0 -1 -1 -1
2 2 2 2 2 2 3 2 3 5 6 5 4 3 2 1 3 2 2 4 6 7 7 7 6 5 4 4 3 3 2 2 2 1 1 0 -0 -0
2 2 2 3 3 3 3 3 4 5 6 5 5 3 3 3 3 2 1 1 1 6 7 7 7 6 5 6 5 5 5 4 3 3 2 2 1 1
2 3 3 3 3 3 3 4 4 4 5 6 5 5 4 2 2 2 1 1 1 3 5 6 7 7 8 8 8 7 7 7 7 6 6 6 5 5
2 3 3 3 4 4 4 3 3 4 4 5 5 3 3 3 3 3 2 1 0 4 9 9 9 9 10 10 9 9 9 9 10 10 10 10 9 8
3 3 3 3 3 3 4 4 4 4 4 4 5 4 4 3 3 3 4 2 2 6 9 10 10 10 10 10 10 10 10 10 10 11 12 12 12 11
4 4 4 5 7 6 3 4 4 4 4 4 5 5 5 4 4 3 3 4 9 8 9 10 11 12 12 11 11 11 11 11 11 12 12 13 13 12
5 4 4 7 7 11 12 13 9 4 5 5 5 5 4 7 8 7 6 7 8 12 10 13 13 14 13 13 13 13 13 13 13 13 13 13 12 12
6 5 5 10 9 11 14 14 14 14 13 7 4 9 9 12 11 11 9 10 11 15 13 15 14 16 14 13 13 13 14 14 13 13 13 13 14 13
14 13 12 13 12 11 13 15 15 14 14 14 14 15 15 15 14 12 12 15 15 16 16 16 15 16 15 14 13 13 13 13 13 14 14 14 14 15
15 15 14 13 13 13 14 16 16 15 15 14 15 15 15 15 14 13 15 15 16 17 17 16 16 16 15 15 14 13 13 14 14 14 14 14 14 15
16 15 14 14 13 13 14 15 17 17 16 16 16 16 16 16 16 16 15 16 16 18 17 16 15 15 15 15 15 15 19 14 13 13 13 14 14 17
16 16 15 15 14 14 15 16 17 16 16 17 17 17 17 17 18 18 18 18 21 23 19 15 16 16 16 16 17 18 18 18 18 17 13 13 14 15
17 16 16 15 15 15 16 16 16 16 17 17 18 18 18 20 21 21 21 20 19 19 19 19 20 21 21 21 20 18 18 19 18 18 18 16 15 14
17 16 16 16 17 17 16 16 17 17 17 18 19 21 23 22 20 19 18 18 18 18 18 18 20 19 20 21 20 20 19 19 19 19 19 18 18 17
17 18 18 19 19 20 20 19 19 19 19 20 21 23 21 21 20 19 19 19 19 20 18 18 19 19 20 20 20 20 20 20 19 19 18 18 17 17
18 18 19 20 21 21 22 21 21 21 21 21 21 21 21 20 20 20 20 20 22 22 21 19 18 18 18 18 19 19 20 19 19 18 17 18 17 17
20 21 22 22 22 22 23 22 22 22 22 22 22 22 21 21 20 20 21 22 22 21 21 20 20 20 19 18 16 19 19 19 18 17 17 18 17 15
21 22 22 23 23 22 23 23 24 23 22 23 23 23 22 21 22 21 21 21 21 20 20 20 21 24 27 29 19 16 19 18 18 17 17 17 17 15
21 22 22 22 22 22 22 23 23 22 22 22 23 24 24 23 23 23 23 26 23 21 21 20 20 21 24 26 26 20 15 18 20 20 18 15 14 11
22 22 23 22 22 22 22 23 23 24 24 25 25 25 25 24 24 23 23 24 23 21 22 21 20 19 18 20 25 24 19 13 14 15 14 16 16 14
22 22 23 23 23 23 24 23 24 24 24 24 25 25 25 24 24 23 23 24 22 22 21 21 19 19 19 20 20 23 18 18 13 11 11 11 15 16
22 23 23 23 23 23 22 24 25 25 25 26 26 25 27 24 24 24 23 23 22 22 22 22 21 19 19 19 20 19 18 17 14 15 13 11 10 9

GFSNE_con_lsi_102.txt.gz
Lid_Strength_Index
1 1 2 3 3 3 3 4 5 7 6 5 5 3 2 3 3 4 3 6 7 7 7 6 5 4 4 3 2 2 1 1 0 0 -0 -0 -1 -1
1 2 2 2 3 3 3 4 4 5 7 5 4 3 2 2 3 3 3 5 7 8 8 7 6 5 5 4 4 3 2 2 1 1 1 1 1 0
1 2 2 2 3 3 3 3 4 5 6 5 3 3 3 3 3 3 3 3 3 7 7 7 7 7 7 6 6 5 5 4 4 3 3 2 2 2
2 2 2 2 3 3 3 4 4 4 5 6 5 4 4 3 3 3 2 1 1 5 7 6 7 8 8 9 8 8 7 7 6 6 6 6 6 5
2 2 2 2 3 3 4 4 4 4 5 5 5 4 4 3 4 3 3 2 4 9 10 10 10 9 9 9 9 9 9 9 9 10 10 10 9 9
2 2 2 2 3 4 4 4 4 4 4 5 5 5 5 4 4 5 4 3 5 8 10 10 10 9 10 10 10 10 10 10 11 11 12 12 12 11
2 3 2 4 7 5 3 4 4 4 5 5 6 6 5 5 5 4 4 5 9 8 9 10 11 11 11 11 11 11 11 11 12 12 12 13 13 13
4 3 5 7 8 9 11 12 8 4 5 5 5 6 6 6 7 6 5 6 8 11 9 13 12 14 13 13 12 13 13 13 13 13 14 14 14 14
6 5 7 9 9 12 14 14 15 15 14 5 5 7 9 10 9 9 8 8 12 14 12 15 15 15 14 13 13 13 13 14 14 14 14 14 14 14
13 12 10 11 11 12 14 16 16 16 16 15 15 16 15 14 11 10 11 15 15 15 15 16 15 17 15 15 14 14 14 14 14 14 14 14 14 15
15 14 13 13 14 13 15 17 17 17 15 14 15 14 14 14 12 12 14 15 16 18 16 15 16 17 17 16 15 14 14 14 14 14 14 14 15 15
16 16 15 15 15 15 15 16 17 17 17 16 16 16 16 15 15 15 15 15 17 18 17 16 16 16 17 17 17 20 19 15 13 13 13 14 14 18
16 15 15 15 15 15 15 16 16 16 16 16 16 17 17 18 18 17 17 16 19 20 19 17 18 18 20 19 18 20 20 19 19 19 16 16 16 16
17 16 15 14 14 15 15 15 16 16 16 17 18 18 18 18 19 19 19 19 18 19 20 20 23 22 22 22 21 19 20 20 20 20 20 18 17 17
17 17 17 17 17 17 17 17 16 17 18 19 20 21 20 19 18 18 18 18 19 19 19 19 20 20 20 21 21 21 21 21 20 21 20 20 19 19
18 19 19 19 19 20 20 19 20 20 20 21 21 20 19 20 20 19 20 19 20 20 19 19 20 20 21 21 20 21 21 22 21 20 19 19 18 19
19 19 20 21 21 21 21 21 20 21 21 21 21 21 21 21 21 21 21 21 22 22 22 21 20 20 20 20 22 21 21 21 20 20 20 20 19 18
21 22 22 23 23 23 23 23 22 22 22 22 23 22 22 22 22 22 22 23 23 23 23 23 22 22 21 21 19 21 21 21 21 19 19 21 19 17
22 22 23 23 23 23 23 23 24 23 23 24 24 24 23 23 23 23 23 22 22 22 22 22 22 23 26 27 22 18 21 20 19 20 19 19 19 17
21 22 23 22 22 23 23 24 24 24 24 25 25 25 24 23 24 24 24 24 22 22 22 22 23 23 25 27 26 21 16 20 21 22 20 18 17 14
22 23 23 23 23 24 25 25 25 26 26 27 27 26 26 24 24 24 24 25 24 23 24 23 22 20 20 21 26 24 21 16 16 18 19 20 21 17
23 23 23 24 23 24 24 25 26 26 26 26 27 28 28 26 27 26 25 26 23 23 23 22 21 21 21 22 24 26 21 21 17 15 14 15 19 19
24 24 25 25 25 25 25 27 28 29 28 28 27 26 28 27 25 25 25 24 24 23 23 23 23 22 22 21 23 24 22 22 19 18 17 13 12 12

GFSNE_con_lsi_105.txt.gz
Lid_Strength_Index
1 1 1 2 2 3 3 4 5 7 7 6 6 3 3 2 3 3 3 5 7 7 7 6 5 4 4 3 3 2 1 1 0 -0 -0 -0 -1 -1
1 1 1 1 3 3 3 4 4 5 7 5 5 5 3 3 3 3 3 5 7 8 8 7 7 6 5 5 4 4 3 3 2 2 1 1 1 1
1 2 2 1 2 3 3 3 4 5 6 6 5 4 4 3 3 3 3 3 4 8 8 8 8 8 8 7 6 6 5 5 4 3 3 3 3 2
2 2 2 2 2 3 3 4 4 4 5 6 5 5 4 3 3 3 3 3 3 8 8 9 9 9 9 9 8 8 8 7 7 7 6 6 5 5
2 2 2 2 3 3 3 4 4 4 5 5 6 5 4 3 3 3 3 5 8 10 11 11 10 10 10 9 9 9 9 9 10 10 10 10 9 8
1 1 2 2 2 3 4 4 4 4 5 5 5 5 5 4 4 4 5 5 9 10 11 11 10 10 10 10 10 9 10 10 10 11 12 12 12 11
2 2 2 3 6 4 3 4 4 4 5 5 6 6 6 6 5 5 5 8 10 10 11 11 11 11 11 10 10 10 10 10 11 12 12 13 13 13
3 3 2 7 7 10 9 9 5 4 5 5 5 6 6 5 6 6 6 9 10 12 12 13 12 13 12 12 11 11 12 12 13 13 14 14 14 15
8 5 6 9 11 12 14 15 15 15 11 4 5 6 7 7 8 9 9 9 12 14 12 15 14 14 13 12 12 13 13 13 14 14 15 15 15 15
13 12 9 10 11 12 14 15 16 16 16 14 12 14 15 13 10 10 11 16 16 15 14 15 14 16 14 14 14 14 14 14 14 15 15 15 15 16
15 14 14 13 14 12 14 16 17 17 16 15 15 15 15 14 13 13 15 14 16 16 15 15 15 16 16 16 15 14 14 14 14 14 15 15 15 17
15 16 15 15 15 15 15 16 17 18 17 17 17 18 17 17 16 15 14 15 16 16 16 15 16 16 18 16 16 16 17 15 14 15 14 16 16 19
16 16 16 14 15 15 15 16 17 17 17 18 18 19 19 18 18 16 16 15 17 19 18 16 17 17 17 17 16 18 17 20 20 20 18 18 18 18
17 17 15 15 15 15 16 16 16 17 18 19 19 19 19 19 19 18 18 18 18 19 18 18 20 19 20 20 21 20 21 21 20 21 21 20 19 19
17 17 17 17 17 17 17 17 17 18 19 20 20 20 19 18 17 18 18 18 18 19 19 18 19 19 19 21 21 22 21 21 20 21 21 21 21 21
19 19 19 18 19 19 19 19 19 19 19 20 20 20 19 19 19 18 19 20 21 21 20 19 19 19 21 20 21 22 22 23 21 21 20 20 19 19
20 21 21 22 22 21 21 21 21 21 21 20 20 21 21 21 21 20 21 21 22 23 23 21 20 20 20 20 22 22 22 22 21 21 20 21 19 19
21 23 23 23 23 23 23 23 23 23 22 22 22 21 22 22 22 22 21 22 23 23 23 23 23 22 22 21 20 22 22 22 21 20 20 22 21 19
22 23 24 24 23 23 23 23 24 23 23 23 23 23 22 22 23 23 23 23 23 23 24 23 23 24 26 27 23 19 22 21 21 22 21 21 21 19
22 23 24 24 24 24 24 25 25 25 25 25 25 25 24 24 24 24 24 24 23 23 24 24 25 24 25 27 27 23 19 22 22 23 22 20 19 17
23 23 23 23 24 24 25 26 26 26 26 26 26 26 26 25 25 25 25 25 24 25 26 25 24 22 22 23 27 26 22 18 18 20 21 22 23 21
24 24 24 24 24 24 25 26 26 27 27 27 28 28 27 26 26 26 25 25 25 25 25 25 23 22 22 23 24 27 23 22 19 18 18 19 24 24
25 25 25 26 25 27 27 29 30 30 29 29 28 29 31 28 27 27 27 25 24 24 24 24 23 23 23 23 24 25 24 24 22 22 20 17 16 15

GFSNE_con_lsi_108.txt.gz
Lid_Strength_Index
1 1 1 1 1 1 2 2 4 6 6 5 5 3 3 2 3 3 2 5 6 6 6 6 5 4 4 3 3 2 1 1 0 0 -0 -1 -1 -1
1 1 1 1 1 2 2 2 3 4 6 4 4 4 3 3 3 3 2 4 7 7 8 7 6 6 5 5 5 4 4 3 2 2 2 1 1 1
1 1 2 1 1 2 2 3 3 4 5 5 4 4 3 3 3 3 3 3 3 8 8 8 8 8 8 7 7 6 6 5 4 4 3 3 3 2
2 2 2 1 2 2 2 3 4 4 6 6 5 5 4 3 3 4 3 3 4 9 8 8 9 9 9 9 9 9 8 7 7 6 6 5 5 4
2 2 2 2 2 2 3 3 3 3 4 5 6 5 4 4 4 4 4 7 8 10 10 10 10 10 10 10 10 10 10 9 9 9 9 8 7 7
1 1 1 2 2 2 2 3 3 4 4 5 5 5 5 4 4 4 6 7 10 10 11 11 11 11 11 11 11 10 10 10 10 11 11 11 11 10
2 1 1 2 4 3 2 3 3 4 5 5 5 6 6 5 5 4 5 8 10 11 12 12 12 12 11 11 11 11 11 11 11 11 12 12 12 12
4 2 1 5 6 8 8 7 5 4 5 5 5 5 5 5 6 5 7 9 10 11 13 15 13 14 13 12 12 11 12 12 12 13 13 14 14 14
9 9 7 7 7 8 13 13 14 13 8 4 5 5 6 6 6 6 7 8 9 14 13 16 15 15 13 13 12 12 12 12 13 13 14 15 15 15
13 12 11 12 13 11 13 15 16 16 15 14 10 14 14 10 6 6 8 15 16 16 14 17 16 16 15 14 12 13 12 13 13 14 15 15 16 16
14 14 14 14 14 13 14 16 17 17 16 16 16 16 15 15 13 11 14 13 17 17 16 16 17 17 16 15 14 13 13 13 13 14 15 15 16 17
15 15 15 14 15 14 15 15 16 17 17 17 17 17 17 17 16 16 14 12 17 17 17 16 17 17 18 15 15 15 15 14 15 14 16 16 17 18
16 16 15 14 14 15 15 16 16 17 17 18 19 19 19 19 19 18 17 16 17 19 18 16 16 16 16 16 17 18 17 19 19 18 18 17 18 18
17 17 16 15 15 16 16 16 17 17 18 19 19 20 21 20 20 20 20 19 19 19 17 16 18 17 17 18 21 20 20 19 19 19 19 19 19 19
18 17 18 17 17 18 17 17 18 18 19 20 21 20 20 19 19 19 19 19 19 19 18 17 18 18 18 20 21 20 20 20 19 20 19 19 20 19
19 20 19 19 20 20 20 19 19 19 19 19 20 19 19 19 20 19 20 19 20 21 19 18 17 18 19 20 20 22 21 22 20 20 20 20 19 19
20 21 21 21 22 22 22 22 21 20 20 20 20 20 20 20 21 20 20 21 22 23 23 21 19 19 19 20 22 22 22 22 21 21 21 21 20 20
21 23 23 23 23 23 23 23 23 23 22 21 21 21 21 21 21 21 21 22 23 23 23 23 22 21 21 21 20 22 22 22 22 21 21 22 22 21
22 23 23 24 24 24 24 24 25 24 23 23 23 22 22 22 22 22 22 22 23 23 24 23 23 23 24 25 22 20 23 22 22 22 22 23 23 21
22 23 24 24 24 24 25 25 25 25 25 24 24 24 23 23 23 23 23 23 23 24 24 24 24 24 25 25 24 23 20 22 22 24 23 22 21 20
23 23 23 24 24 24 25 25 25 26 25 26 25 25 25 24 24 24 24 24 24 24 25 25 24 22 22 23 25 25 23 21 21 23 22 23 22 21
23 24 24 25 25 25 26 26 26 26 26 26 27 26 25 25 25 25 24 25 25 25 25 24 23 22 23 24 25 26 24 23 21 20 19 20 21 23
26 25 25 26 26 27 27 29 29 29 28 27 27 27 28 27 25 25 25 25 25 25 25 25 25 24 24 24 25 24 24 23 22 22 21 20 19 18

GFSNE_con_lsi_114.txt.gz
Lid_Strength_Index
1 1 1 1 0 1 1 2 3 6 5 2 2 0 0 1 2 2 1 5 7 8 7 6 4 2 2 1 1 1 1 1 1 1 0 0 -0 -1
1 1 1 1 1 1 1 1 2 3 5 2 1 0 -0 1 2 1 1 4 7 8 8 7 6 4 3 3 3 3 3 2 2 2 1 1 0 0
1 1 1 1 1 1 1 1 2 2 4 3 1 0 1 1 1 2 1 1 1 8 8 8 8 7 6 5 5 5 5 4 3 3 2 2 1 1
2 2 2 1 1 1 1 2 2 1 3 4 2 2 2 1 1 2 2 1 1 6 8 8 8 8 8 7 7 7 7 6 6 5 5 4 3 3
1 2 1 1 1 1 1 2 2 2 2 3 3 1 1 1 2 2 3 2 2 7 9 9 9 9 9 9 8 8 8 8 8 8 8 8 7 6
2 1 1 1 1 1 2 2 2 2 2 3 3 3 3 2 2 3 4 3 6 5 9 9 9 9 9 10 10 10 10 10 10 11 11 11 11 9
2 1 0 4 7 7 3 1 2 2 3 3 4 3 4 4 4 3 4 7 9 9 9 9 9 9 10 11 10 11 11 12 11 11 12 12 12 12
7 7 6 6 7 9 9 10 8 3 3 3 4 4 3 4 4 4 4 9 11 10 11 13 10 11 11 11 12 12 13 12 12 12 12 13 13 13
12 12 11 9 9 8 8 11 12 14 13 8 3 3 4 3 4 4 5 7 7 11 12 15 13 14 13 13 13 13 13 13 13 13 14 14 15 15
15 15 14 12 12 12 9 10 13 14 14 13 14 12 9 3 3 4 4 9 13 13 13 17 16 16 14 14 14 14 14 14 15 15 15 16 16 16
16 16 15 14 14 13 11 12 14 14 13 14 15 15 16 15 10 4 11 11 16 16 16 17 17 17 16 16 15 15 15 15 15 16 16 16 16 17
17 17 16 16 15 15 14 14 14 15 15 15 16 16 17 17 16 16 9 9 16 17 16 16 17 17 19 17 16 16 16 15 15 15 16 16 17 17
18 19 18 16 16 16 16 16 16 15 16 16 18 18 18 19 19 18 17 16 15 17 16 16 16 17 18 20 20 17 16 16 17 17 17 17 18 17
19 18 17 17 17 17 17 17 17 17 17 18 19 20 20 21 20 20 19 19 18 18 17 17 16 17 19 21 22 20 19 18 18 19 18 18 18 18
17 17 17 18 18 18 18 18 18 18 19 20 20 19 19 19 19 19 19 18 19 19 18 16 17 18 18 21 22 21 20 19 18 18 18 18 17 17
15 15 16 17 17 18 18 18 18 18 20 20 20 19 19 19 20 19 20 19 20 20 19 18 17 17 19 19 20 20 19 20 18 18 18 17 17 16
15 14 15 16 16 17 17 17 17 18 19 19 19 19 19 20 20 19 20 20 21 21 21 19 19 18 18 18 19 18 19 19 18 19 18 19 17 16
15 16 17 17 18 18 18 18 18 18 18 18 18 18 19 19 19 20 20 20 21 21 20 19 19 19 20 20 18 20 19 20 20 19 19 19 19 18
15 15 16 16 17 18 18 18 19 19 18 18 18 18 19 19 19 20 20 21 21 21 21 20 19 19 21 23 22 19 21 20 20 20 20 20 20 19
15 16 16 16 16 16 17 17 18 18 18 18 19 19 19 19 19 20 20 21 22 22 22 21 21 20 20 21 22 22 20 20 20 20 20 20 19 19
16 16 16 16 16 16 16 16 16 17 17 18 18 19 19 19 20 20 21 21 21 22 23 23 22 20 19 19 22 22 22 22 21 21 20 20 19 19
17 17 17 17 17 17 16 17 16 16 16 16 17 17 17 18 19 20 20 20 21 21 22 21 20 20 20 20 22 22 21 20 21 22 22 22 20 20
18 17 17 17 17 17 17 17 18 17 18 17 17 17 17 17 17 18 18 19 20 20 20 21 20 19 20 20 20 21 22 21 19 19 19 21 20 20

GFSNE_con_lsi_117.txt.gz
Lid_Strength_Index
1 1 1 1 1 1 1 2 3 6 5 2 2 -0 -0 -0 1 -0 0 6 7 7 7 6 4 4 4 3 2 1 -0 -0 -0 -0 1 -0 -1 -1
1 1 1 1 1 1 1 1 2 3 5 2 2 1 -0 -0 0 -0 -0 4 7 8 8 7 6 5 5 5 4 3 2 1 1 1 1 1 -0 -0
1 2 2 1 1 1 1 1 2 2 4 3 1 0 0 0 0 -0 -0 0 2 8 8 8 8 7 7 6 6 5 3 3 2 2 2 2 1 0
2 2 2 1 1 1 1 2 2 2 3 4 2 2 1 0 0 0 1 -0 0 5 8 8 8 8 8 8 7 7 6 5 4 3 3 3 2 1
2 2 2 2 2 2 1 2 2 2 2 3 3 2 1 1 1 1 1 1 0 3 8 9 8 8 8 8 8 8 8 8 7 6 6 6 5 5
2 2 1 1 2 3 2 2 1 2 2 3 3 3 2 1 1 2 3 2 2 3 8 7 8 8 9 9 9 8 8 8 8 8 8 9 9 8
6 6 6 8 10 10 7 5 5 4 3 3 4 3 3 3 3 2 3 2 5 7 9 9 8 7 7 9 8 9 9 9 9 9 10 11 11 10
10 10 9 9 10 11 11 11 11 8 6 4 3 4 3 3 2 3 3 8 9 8 10 12 10 11 10 8 9 11 11 11 11 11 11 11 12 12
14 13 12 12 12 11 9 10 12 13 13 11 9 6 5 3 2 3 3 5 5 9 11 15 13 14 13 12 12 12 12 12 12 12 13 13 13 13
16 16 15 15 15 13 10 10 12 12 13 13 14 15 15 14 12 5 3 4 12 11 12 17 15 16 14 14 13 13 13 13 13 13 14 15 15 16
17 16 17 16 15 14 12 12 14 15 14 14 14 15 14 14 14 11 7 10 16 15 15 16 17 17 17 17 16 15 15 15 15 15 16 16 16 17
17 17 16 16 16 16 16 16 16 16 16 16 16 16 16 16 15 16 15 10 15 16 16 17 17 17 19 17 17 17 17 16 16 16 16 16 17 18
19 19 18 17 17 17 17 17 18 16 17 17 17 17 17 17 17 17 17 17 15 17 16 16 16 17 18 20 18 17 17 17 17 17 16 16 16 17
18 17 17 17 17 17 18 17 17 17 18 18 19 20 19 19 18 17 17 18 18 17 17 16 16 17 19 20 22 19 18 18 18 19 18 17 17 17
16 16 16 16 16 16 16 17 17 17 18 19 20 20 20 19 18 18 17 17 18 19 17 16 17 17 18 20 21 21 20 19 19 19 19 19 19 18
14 14 15 15 15 15 16 15 15 16 17 18 18 18 18 19 19 19 19 18 19 20 19 18 17 17 20 19 20 21 20 21 19 18 18 18 17 17
13 13 15 15 16 16 16 16 15 16 16 16 16 17 17 18 19 19 19 19 20 20 20 19 19 18 17 18 20 19 20 19 18 18 18 19 18 17
13 15 15 15 15 16 16 16 17 17 17 16 16 16 18 18 18 18 19 19 20 20 19 18 18 19 19 20 18 19 20 20 19 19 18 19 19 18
14 15 15 15 15 15 16 16 16 16 16 17 17 17 17 17 18 18 19 20 20 20 20 19 18 19 21 24 21 19 20 20 20 20 19 20 19 19
15 16 16 16 16 16 16 16 16 16 16 16 16 16 17 17 18 19 19 20 20 21 21 21 21 20 21 22 23 23 19 20 20 21 21 20 19 19
16 16 16 16 16 16 16 16 15 16 16 16 16 16 16 16 17 18 19 20 20 21 22 22 21 19 20 20 23 23 23 21 21 21 21 21 21 20
17 17 17 17 17 17 17 17 16 16 16 16 16 16 15 15 16 16 17 18 19 20 21 20 19 19 19 20 22 22 22 21 22 22 22 22 21 20
18 17 17 17 18 17 17 17 18 18 17 17 17 16 16 16 16 16 16 17 17 18 18 19 19 19 19 20 20 21 21 20 20 21 20 20 21 20

GFSNE_con_lsi_120.txt.gz
Lid_Strength_Index
1 1 2 1 1 1 2 2 4 6 6 3 3 1 1 1 1 1 1 3 6 6 6 5 4 4 3 3 3 2 2 2 1 1 -0 -0 -1 -1
1 2 2 1 1 1 2 2 2 4 6 3 3 1 1 1 2 1 0 3 6 7 7 6 6 5 4 4 4 4 3 3 2 2 1 0 -1 -1
1 2 2 1 2 2 2 2 2 3 5 3 2 2 2 2 2 2 1 1 1 7 7 7 7 7 7 6 6 5 5 4 4 3 2 1 0 -1
2 2 2 1 2 1 2 3 3 3 3 4 3 2 2 2 1 2 1 0 0 4 7 7 7 7 8 8 7 7 7 6 6 5 3 2 1 0
2 2 2 2 2 2 2 2 2 2 2 3 3 2 2 2 2 1 1 1 0 3 7 7 7 7 7 8 7 7 8 8 8 7 7 6 4 3
2 4 5 5 5 5 4 4 4 4 3 3 3 3 2 2 1 3 3 2 2 1 3 5 6 7 8 8 8 8 8 8 8 8 8 9 8 6
9 9 11 10 12 11 7 8 7 6 6 6 5 3 3 3 3 2 3 2 2 2 3 4 4 5 5 9 7 8 8 8 8 8 8 9 10 9
14 13 11 13 12 12 12 13 12 10 9 8 6 5 4 3 2 3 3 3 7 7 5 5 8 4 5 6 8 8 10 9 9 9 9 9 10 10
16 16 15 15 15 12 12 13 14 14 15 13 12 11 12 13 13 10 6 3 4 7 6 8 12 14 12 12 11 9 10 10 10 10 10 11 11 11
16 17 17 16 16 14 11 13 15 15 15 14 15 15 15 15 14 14 12 10 10 11 10 14 15 16 14 13 12 11 11 11 11 11 12 12 12 13
18 17 17 17 16 15 15 15 16 17 15 15 15 15 16 15 15 14 13 12 13 13 14 15 16 17 16 16 15 13 13 13 13 13 14 14 15 16
18 18 16 17 16 16 18 18 18 18 18 17 17 17 16 16 16 17 17 16 14 15 14 15 16 17 18 17 16 16 16 15 15 15 15 16 17 18
18 18 17 16 16 16 17 18 18 18 18 18 19 19 18 18 17 17 17 18 18 15 14 14 16 17 17 19 17 17 17 17 17 17 16 17 17 18
17 17 16 15 16 16 16 16 17 18 18 19 19 20 20 19 18 17 17 17 17 18 15 15 15 16 19 20 20 18 18 18 18 19 18 17 16 17
16 16 15 15 16 17 17 17 17 17 17 19 19 19 19 18 18 18 17 17 17 17 17 16 15 15 17 20 20 20 21 20 19 20 20 20 19 19
15 16 16 16 17 17 17 17 18 18 18 18 18 17 19 18 18 18 18 18 19 19 18 17 17 17 17 18 19 20 20 22 20 20 19 19 18 18
15 16 17 17 17 18 17 17 17 17 18 17 18 18 18 18 19 18 18 19 20 20 20 19 18 18 17 18 20 20 20 20 19 19 19 19 18 18
16 17 17 17 17 17 18 18 18 18 17 17 18 18 18 18 19 18 18 19 21 21 21 18 18 19 20 20 17 20 20 20 19 18 19 20 20 19
18 18 19 18 18 18 18 17 18 17 16 16 17 17 17 17 18 19 19 19 20 21 21 20 18 20 23 25 21 17 20 20 20 20 19 20 20 20
19 19 19 19 19 19 18 19 18 18 17 17 17 17 17 17 18 19 19 20 21 21 21 21 21 21 22 23 24 23 18 20 20 21 21 20 20 19
20 20 19 20 20 19 19 19 19 19 19 19 18 18 18 17 18 18 18 19 19 20 21 21 20 18 19 20 23 23 23 20 20 20 20 21 22 21
21 21 20 20 21 21 21 21 21 20 20 20 20 19 19 18 18 20 19 19 19 19 19 19 17 16 17 20 22 23 22 22 21 20 20 21 22 22
21 20 20 20 20 21 21 21 21 22 22 22 22 20 19 22 20 19 20 20 20 20 18 19 18 17 17 18 19 21 21 21 21 21 21 20 20 20

GFSNE_con_lsi_123.txt.gz
Lid_Strength_Index
1 1 2 1 1 1 3 3 4 7 6 4 3 1 1 1 2 2 1 4 6 6 6 5 4 3 3 3 2 2 2 1 1 1 -0 -0 -0 -1
1 2 2 1 1 1 2 3 4 4 6 3 3 2 1 1 2 2 1 4 7 7 7 7 6 4 4 4 4 3 3 3 3 2 2 2 1 0
1 2 2 1 3 2 2 2 4 4 5 3 3 2 2 2 2 2 2 2 1 7 7 7 7 6 6 5 5 5 4 4 4 3 3 3 2 1
2 2 2 2 2 2 3 2 2 3 4 4 3 3 3 2 2 3 2 1 1 4 7 7 7 7 7 7 6 6 6 6 6 5 4 4 3 3
2 2 2 2 2 2 3 3 4 3 3 4 3 3 2 2 3 3 2 2 1 4 7 8 8 8 7 7 7 7 7 7 7 7 7 6 6 5
4 5 7 7 4 3 3 4 4 4 4 3 4 3 3 3 2 3 3 2 2 1 3 5 7 7 8 8 7 7 7 7 7 8 8 9 9 8
11 13 13 13 13 12 7 7 7 6 6 5 5 4 4 4 4 3 3 3 2 1 2 2 4 4 5 8 6 7 7 7 7 7 8 8 9 9
15 15 14 14 13 14 14 14 14 10 9 7 7 7 6 8 10 10 7 4 5 5 2 2 5 3 4 3 6 8 8 8 8 8 8 8 9 9
16 16 16 15 13 12 14 15 15 15 15 12 11 13 13 15 14 13 10 9 8 7 6 4 11 10 12 11 11 11 9 9 8 9 9 9 9 10
17 18 17 16 16 14 15 16 17 16 16 16 16 17 17 16 16 15 15 13 12 11 9 10 14 15 14 14 12 11 11 10 9 10 9 9 10 10
17 17 17 17 17 16 16 16 18 19 16 16 16 16 16 16 16 16 17 16 14 14 14 13 15 15 15 15 15 14 13 12 11 11 10 10 12 13
17 16 16 17 16 16 18 18 20 19 19 18 19 18 18 17 17 18 18 18 16 14 15 14 15 15 16 16 15 16 16 14 13 12 11 11 13 14
18 17 16 16 16 16 16 18 18 18 18 19 19 19 19 18 18 18 18 19 19 16 15 15 15 15 16 17 17 16 16 17 16 16 15 15 14 15
18 18 17 17 17 17 18 17 17 17 17 18 18 19 19 19 18 18 18 18 18 19 18 16 15 15 17 18 19 17 18 18 18 18 17 16 16 16
17 17 16 17 17 18 18 18 19 18 18 19 19 19 18 18 18 18 17 17 17 18 18 17 15 15 15 17 18 19 20 19 19 19 19 19 18 18
16 16 17 17 18 19 19 19 19 19 19 20 20 18 18 18 19 19 21 20 20 19 18 18 17 16 17 17 18 19 19 21 19 19 20 19 19 19
17 17 18 18 18 18 18 17 18 19 19 19 19 19 19 19 20 19 20 22 22 22 21 19 18 18 17 18 19 19 20 20 19 18 19 20 19 19
19 20 21 20 20 20 20 19 18 18 17 17 18 18 19 20 19 19 20 22 22 22 22 21 19 20 20 19 17 19 19 19 18 18 18 20 21 19
20 21 22 22 21 21 20 20 20 20 19 18 19 18 17 17 18 19 20 20 21 21 21 20 20 22 23 25 21 17 19 19 19 19 19 19 21 20
21 22 22 22 22 22 22 22 21 21 21 21 20 20 20 18 19 18 19 20 20 20 21 20 21 21 23 25 25 22 17 19 20 21 21 20 19 18
23 23 22 22 23 23 24 24 23 23 24 24 23 22 21 20 20 20 21 21 20 19 20 20 19 17 18 19 23 23 22 17 18 19 20 21 22 21
25 23 23 23 24 24 24 25 24 25 25 25 25 25 23 21 21 21 22 24 21 20 19 18 16 16 17 19 21 22 22 21 19 18 18 19 20 22
28 26 27 29 28 27 23 25 26 26 26 25 24 23 23 21 20 21 21 22 22 22 21 19 18 17 18 18 19 20 21 20 20 20 19 18 18 19

GFSNE_con_lsi_126.txt.gz
Lid_Strength_Index
2 3 2 2 2 1 2 3 4 7 6 5 5 1 1 1 2 2 2 5 7 7 7 6 4 3 2 2 2 2 1 1 1 1 1 -0 -0 -1
3 3 2 3 1 2 1 2 4 4 6 3 4 3 1 1 3 2 2 5 7 7 8 7 6 5 4 4 3 3 2 2 2 2 2 2 1 1
3 2 2 2 2 2 1 2 2 4 5 4 3 3 2 2 2 2 2 2 2 8 8 8 8 7 6 6 5 4 4 3 3 3 2 2 2 2
3 2 2 1 2 2 2 2 2 2 4 4 4 4 3 2 2 2 2 1 1 5 8 8 8 8 8 7 7 6 5 5 4 4 4 3 3 3
5 3 2 2 2 2 2 2 2 2 3 5 4 4 4 3 3 3 2 2 2 4 8 9 9 8 8 8 7 7 7 6 6 6 6 6 4 4
10 11 9 8 5 2 2 2 2 3 3 4 5 5 4 4 3 4 3 2 2 2 4 6 7 8 8 8 8 8 7 6 6 6 7 7 7 6
12 12 12 12 13 13 6 8 3 3 3 4 5 5 4 4 4 5 4 4 3 2 2 2 3 4 5 8 7 8 8 8 7 7 7 8 8 8
14 14 13 12 13 15 15 15 15 10 8 7 7 7 9 11 11 10 9 7 6 7 3 2 3 2 3 4 10 9 9 9 8 8 7 8 8 8
15 15 15 14 14 14 15 15 16 16 16 12 14 15 14 16 14 13 11 11 10 9 9 8 10 10 11 11 11 11 11 11 9 9 9 9 8 9
17 16 17 17 16 16 15 17 17 17 17 17 17 17 17 16 16 15 15 15 14 13 12 13 14 13 14 14 13 12 11 11 10 10 10 10 9 9
16 16 17 17 16 16 18 18 19 19 17 16 17 16 17 16 17 16 18 17 16 15 15 15 15 15 15 15 15 13 13 12 11 11 10 10 10 10
18 17 16 17 17 17 18 18 19 19 19 18 19 18 18 18 17 18 19 19 18 16 17 17 15 15 16 16 16 15 15 14 13 13 13 11 11 9
19 19 18 17 17 17 17 18 19 17 18 18 18 18 18 18 18 18 18 19 20 19 17 18 16 16 16 17 17 17 17 16 16 15 14 12 13 14
19 19 19 18 18 18 19 18 18 19 19 19 19 20 20 20 19 18 18 18 18 19 18 18 18 16 17 19 18 18 18 18 17 16 16 15 15 15
17 17 18 19 19 19 18 19 20 20 20 21 21 20 20 19 19 19 19 19 19 18 18 18 18 17 16 17 19 19 19 19 18 18 17 17 17 17
18 18 18 17 19 19 19 19 19 19 20 20 21 20 19 19 20 19 21 21 21 21 19 19 18 18 18 18 18 19 19 20 19 18 18 18 18 17
20 20 21 21 21 20 20 20 20 19 19 19 19 19 19 20 20 20 20 21 23 23 23 21 18 18 19 18 20 20 20 20 19 18 18 19 19 18
21 23 24 23 23 23 22 22 21 21 21 20 20 20 20 18 18 18 19 21 22 23 23 22 22 22 21 20 19 20 19 19 19 18 18 20 20 19
23 23 24 25 24 24 24 24 24 23 23 23 23 22 21 20 20 19 20 20 20 20 21 21 22 24 27 27 22 19 20 19 19 19 19 20 21 20
23 24 25 25 25 24 25 25 25 25 26 25 25 25 24 22 21 21 21 24 22 20 20 19 20 21 25 26 27 23 17 19 20 20 20 19 19 18
24 24 25 25 25 25 26 28 29 28 28 29 27 26 26 24 23 22 23 24 23 20 21 20 19 17 18 19 24 23 21 16 17 19 19 20 21 20
27 25 25 26 29 28 30 34 30 30 30 29 29 28 27 25 24 23 23 25 24 23 21 19 17 17 18 19 22 22 21 20 17 16 17 17 19 21
30 28 29 31 31 31 28 32 33 34 31 30 29 28 27 26 23 22 24 23 23 23 22 22 20 18 19 19 20 21 21 20 19 19 19 17 17 16

GFSNE_con_lsi_129.txt.gz
Lid_Strength_Index
2 2 2 2 1 2 3 2 4 6 6 4 4 2 1 2 3 3 2 5 7 7 7 6 5 4 3 2 2 1 1 1 1 1 1 0 0 -0
1 2 3 2 2 1 2 2 2 4 6 3 4 3 2 1 3 2 2 5 8 8 9 8 7 6 5 4 3 2 2 2 2 2 2 1 1 1
2 2 3 3 3 2 2 2 2 2 5 3 3 3 3 2 2 2 2 2 3 9 9 9 8 8 7 6 5 5 4 3 3 2 2 1 1 1
2 3 3 3 3 3 2 2 3 2 3 4 3 4 3 2 2 2 2 2 2 7 9 9 9 9 9 8 7 7 6 5 5 4 3 3 2 2
8 9 8 5 3 3 2 2 2 2 2 3 3 3 3 3 2 2 2 2 2 5 8 8 8 9 9 9 8 7 7 7 7 7 6 5 4 3
10 11 12 13 11 11 7 2 2 3 2 3 3 3 4 4 3 3 4 3 3 2 4 6 8 9 9 9 9 8 8 7 7 7 7 8 7 6
12 11 10 11 12 12 11 12 11 4 3 3 4 4 4 5 4 4 4 4 3 3 3 3 5 6 6 9 8 9 9 8 8 8 7 8 8 7
14 13 12 12 12 13 13 14 14 13 15 13 4 4 7 10 11 9 8 6 6 9 7 4 4 4 4 8 11 11 10 9 9 8 8 8 8 8
15 14 14 14 13 12 13 15 14 16 16 16 18 17 16 17 15 12 12 11 10 11 11 10 9 9 11 13 12 12 11 10 10 10 10 10 10 10
15 15 15 15 14 14 15 16 16 17 17 16 17 17 17 17 17 16 15 15 14 14 13 14 14 14 14 14 13 12 12 12 11 11 11 10 10 10
16 16 17 16 14 14 16 18 17 18 16 16 17 17 16 17 17 17 17 16 15 15 18 16 15 16 16 16 15 14 14 14 13 13 12 12 11 10
18 18 16 17 17 17 19 19 19 19 19 18 18 18 18 18 17 18 19 19 18 17 18 19 16 16 15 17 17 16 16 15 15 14 13 12 11 11
20 20 19 18 17 18 18 19 20 19 19 19 19 19 19 19 19 19 19 19 20 20 18 19 18 16 16 17 17 18 18 17 16 17 15 13 13 12
18 18 18 18 19 19 20 20 19 20 20 20 20 21 21 21 20 19 19 19 18 19 19 19 19 18 18 17 18 18 18 18 18 18 17 16 15 14
18 18 17 17 18 19 19 20 22 22 22 22 22 21 21 20 20 20 19 20 19 19 19 19 20 19 18 17 18 19 19 19 18 18 18 18 18 17
20 21 21 19 21 21 20 20 21 21 21 21 21 21 20 20 21 20 21 21 22 22 20 21 21 20 20 19 19 19 19 20 19 18 18 18 18 17
22 22 23 23 24 23 23 23 22 23 23 22 22 21 21 19 19 19 20 21 24 24 23 22 21 21 22 21 20 20 20 19 19 18 19 20 19 19
23 25 26 25 25 25 25 25 25 25 25 24 24 24 23 22 21 20 20 20 21 21 22 22 22 23 22 22 19 22 20 19 19 18 19 21 21 19
25 26 27 27 26 25 26 26 27 27 26 26 26 26 25 24 22 21 22 22 21 20 20 20 20 21 26 29 23 19 21 20 19 20 20 20 21 20
24 25 27 26 26 26 27 27 28 29 29 29 28 28 27 26 25 23 23 25 24 22 21 20 20 20 23 25 26 23 17 20 20 20 21 20 19 18
24 24 27 26 26 25 30 31 36 32 32 33 30 30 29 28 26 25 24 25 25 23 23 22 20 17 18 19 24 22 20 15 16 18 19 21 21 21
27 25 25 27 29 28 32 36 32 33 31 31 31 31 31 29 27 26 25 26 25 24 23 21 20 18 18 20 22 22 21 20 17 16 16 17 19 21
29 27 28 31 32 32 28 33 33 35 33 32 31 30 31 29 27 26 25 26 25 25 23 23 22 20 19 20 21 21 20 20 19 19 19 17 16 15